Time,TemperatureF,DewpointF,PressureIn,WindDirection,WindDirectionDegrees,WindSpeedMPH,WindSpeedGustMPH,Humidity,HourlyPrecipIn,Conditions,Clouds,dailyrainin,SoftwareType,DateUTC
2013-07-29 00:01:00,69.9,69.0,29.93,SSW,200,0.0,2.0,97,0.00,,---,0.05,VWS V13.01,2013-07-29 04:01:00,
2013-07-29 00:02:00,69.9,69.0,29.93,SSW,200,0.0,2.0,97,0.00,,---,0.00,VWS V13.01,2013-07-29 04:02:00,
2013-07-29 00:06:00,69.8,68.9,29.93,SSW,200,0.0,0.0,97,0.00,,---,0.00,VWS V13.01,2013-07-29 04:06:00,
2013-07-29 00:07:00,69.8,68.9,29.93,SSW,200,0.0,0.0,97,0.00,,---,0.00,VWS V13.01,2013-07-29 04:07:00,
2013-07-29 00:11:00,69.8,68.9,29.93,SSW,200,0.0,0.0,97,0.00,,---,0.00,VWS V13.01,2013-07-29 04:11:00,
2013-07-29 00:12:00,69.8,68.9,29.94,SSW,200,0.0,0.0,97,0.00,,---,0.00,VWS V13.01,2013-07-29 04:12:00,
2013-07-29 00:16:00,69.8,69.2,29.94,SSW,200,0.0,1.0,98,0.00,,---,0.00,VWS V13.01,2013-07-29 04:16:00,
2013-07-29 00:17:00,69.7,69.1,29.94,SSW,200,0.0,1.0,98,0.00,,---,0.00,VWS V13.01,2013-07-29 04:17:00,
2013-07-29 00:21:00,69.7,69.1,29.94,SSW,200,0.0,1.0,98,0.00,,---,0.00,VWS V13.01,2013-07-29 04:21:00,
2013-07-29 00:22:00,69.8,69.2,29.94,SSW,200,0.0,1.0,98,0.00,,---,0.00,VWS V13.01,2013-07-29 04:22:00,
2013-07-29 00:23:00,69.7,69.1,29.94,SSW,200,0.0,1.0,98,0.00,,---,0.00,VWS V13.01,2013-07-29 04:23:00,
2013-07-29 00:26:00,69.7,69.1,29.94,SW,221,0.0,6.0,98,0.00,,---,0.00,VWS V13.01,2013-07-29 04:26:00,
2013-07-29 00:27:00,69.7,69.1,29.94,SW,221,0.0,6.0,98,0.00,,---,0.00,VWS V13.01,2013-07-29 04:27:00,
2013-07-29 00:28:00,69.7,69.1,29.94,SW,221,0.0,6.0,98,0.00,,---,0.00,VWS V13.01,2013-07-29 04:28:00,
2013-07-29 00:31:00,69.7,68.8,29.94,SW,221,0.0,6.0,97,0.00,,---,0.00,VWS V13.01,2013-07-29 04:31:00,
2013-07-29 00:32:00,69.7,68.8,29.94,SW,221,0.0,0.0,97,0.00,,---,0.00,VWS V13.01,2013-07-29 04:32:00,
2013-07-29 00:33:00,69.7,68.8,29.94,SW,221,0.0,0.0,97,0.00,,---,0.00,VWS V13.01,2013-07-29 04:33:00,
2013-07-29 00:37:00,69.6,68.7,29.94,SSW,195,0.0,5.0,97,0.00,,---,0.00,VWS V13.01,2013-07-29 04:37:00,
2013-07-29 00:38:00,69.6,68.7,29.94,SSW,195,0.0,5.0,97,0.00,,---,0.00,VWS V13.01,2013-07-29 04:38:00,
2013-07-29 00:42:00,69.7,68.8,29.94,SSW,195,0.0,5.0,97,0.00,,---,0.00,VWS V13.01,2013-07-29 04:42:00,
2013-07-29 00:43:00,69.7,68.8,29.94,SSW,195,0.0,5.0,97,0.00,,---,0.00,VWS V13.01,2013-07-29 04:43:00,
2013-07-29 00:47:00,69.6,68.7,29.94,SSW,203,0.0,5.0,97,0.00,,---,0.00,VWS V13.01,2013-07-29 04:47:00,
2013-07-29 00:48:00,69.6,68.7,29.94,SSW,203,0.0,5.0,97,0.00,,---,0.00,VWS V13.01,2013-07-29 04:48:00,
2013-07-29 00:52:00,69.7,68.8,29.94,SSW,203,0.0,5.0,97,0.00,,---,0.00,VWS V13.01,2013-07-29 04:52:00,
2013-07-29 00:53:00,69.7,68.8,29.94,SSW,203,0.0,5.0,97,0.00,,---,0.00,VWS V13.01,2013-07-29 04:53:00,
2013-07-29 00:54:00,69.7,68.8,29.94,SSW,203,0.0,5.0,97,0.00,,---,0.00,VWS V13.01,2013-07-29 04:54:00,
2013-07-29 00:57:00,69.7,68.8,29.94,SSW,203,0.0,5.0,97,0.00,,---,0.00,VWS V13.01,2013-07-29 04:57:00,
2013-07-29 00:58:00,69.7,68.8,29.94,SSW,203,0.0,5.0,97,0.00,,---,0.00,VWS V13.01,2013-07-29 04:58:00,
2013-07-29 00:59:00,69.7,69.1,29.94,SSW,203,0.0,5.0,98,0.00,,---,0.00,VWS V13.01,2013-07-29 04:59:00,
2013-07-29 01:02:00,69.8,69.2,29.94,SSW,203,0.0,0.0,98,0.00,,---,0.00,VWS V13.01,2013-07-29 05:02:00,
2013-07-29 01:03:00,69.8,69.2,29.94,SSW,203,0.0,0.0,98,0.00,,---,0.00,VWS V13.01,2013-07-29 05:03:00,
2013-07-29 01:05:00,69.8,69.2,29.94,SSW,203,0.0,0.0,98,0.00,,---,0.00,VWS V13.01,2013-07-29 05:05:00,
2013-07-29 01:07:00,69.8,69.2,29.94,SSW,203,0.0,0.0,98,0.00,,---,0.00,VWS V13.01,2013-07-29 05:07:00,
2013-07-29 01:08:00,69.8,69.2,29.93,SSW,203,0.0,0.0,98,0.00,,---,0.00,VWS V13.01,2013-07-29 05:08:00,
2013-07-29 01:11:00,69.8,69.2,29.93,SSW,203,0.0,0.0,98,0.00,,---,0.00,VWS V13.01,2013-07-29 05:11:00,
2013-07-29 01:12:00,69.8,69.2,29.93,SSW,203,0.0,0.0,98,0.00,,---,0.00,VWS V13.01,2013-07-29 05:12:00,
2013-07-29 01:13:00,69.9,69.3,29.94,SSW,203,0.0,0.0,98,0.00,,---,0.00,VWS V13.01,2013-07-29 05:13:00,
2013-07-29 01:14:00,69.9,69.3,29.94,SSW,203,0.0,0.0,98,0.00,,---,0.00,VWS V13.01,2013-07-29 05:14:00,
2013-07-29 01:16:00,69.9,69.3,29.94,South,184,1.0,4.0,98,0.00,,---,0.00,VWS V13.01,2013-07-29 05:16:00,
2013-07-29 01:17:00,69.9,69.3,29.94,South,175,0.0,4.0,98,0.00,,---,0.00,VWS V13.01,2013-07-29 05:17:00,
2013-07-29 01:18:00,69.9,69.3,29.94,South,175,0.0,4.0,98,0.00,,---,0.00,VWS V13.01,2013-07-29 05:18:00,
2013-07-29 01:19:00,69.9,69.3,29.94,South,175,0.0,4.0,98,0.00,,---,0.00,VWS V13.01,2013-07-29 05:19:00,
2013-07-29 01:21:00,69.9,69.3,29.94,South,175,0.0,4.0,98,0.00,,---,0.00,VWS V13.01,2013-07-29 05:21:00,
2013-07-29 01:23:00,69.9,69.3,29.94,South,175,0.0,4.0,98,0.00,,---,0.00,VWS V13.01,2013-07-29 05:23:00,
2013-07-29 01:24:00,69.9,69.3,29.95,South,175,0.0,4.0,98,0.00,,---,0.00,VWS V13.01,2013-07-29 05:24:00,
2013-07-29 01:26:00,69.9,69.3,29.95,South,173,0.0,4.0,98,0.00,,---,0.00,VWS V13.01,2013-07-29 05:26:00,
2013-07-29 01:28:00,70.0,69.4,29.95,South,174,0.0,4.0,98,0.00,,---,0.00,VWS V13.01,2013-07-29 05:28:00,
2013-07-29 01:29:00,70.0,69.4,29.95,SSE,164,0.0,4.0,98,0.00,,---,0.00,VWS V13.01,2013-07-29 05:29:00,
2013-07-29 01:32:00,70.0,69.4,29.95,SSE,165,0.0,0.0,98,0.01,,---,0.01,VWS V13.01,2013-07-29 05:32:00,
2013-07-29 01:33:00,69.9,69.3,29.95,SSE,162,0.0,1.0,98,0.01,,---,0.01,VWS V13.01,2013-07-29 05:33:00,
2013-07-29 01:34:00,69.9,69.3,29.95,SSE,163,0.0,1.0,98,0.01,,---,0.01,VWS V13.01,2013-07-29 05:34:00,
2013-07-29 01:37:00,70.0,69.4,29.96,West,278,0.0,1.0,98,0.01,,---,0.01,VWS V13.01,2013-07-29 05:37:00,
2013-07-29 01:38:00,70.0,69.4,29.96,West,277,0.0,1.0,98,0.01,,---,0.01,VWS V13.01,2013-07-29 05:38:00,
2013-07-29 01:40:00,70.0,69.4,29.96,West,280,0.0,2.0,98,0.01,,---,0.01,VWS V13.01,2013-07-29 05:40:00,
2013-07-29 01:42:00,70.1,69.5,29.96,West,280,0.0,2.0,98,0.01,,---,0.01,VWS V13.01,2013-07-29 05:42:00,
2013-07-29 01:43:00,70.1,69.5,29.96,West,280,0.0,2.0,98,0.01,,---,0.01,VWS V13.01,2013-07-29 05:43:00,
2013-07-29 01:44:00,70.2,69.6,29.96,West,280,0.0,2.0,98,0.01,,---,0.01,VWS V13.01,2013-07-29 05:44:00,
2013-07-29 01:45:00,70.2,69.6,29.96,West,280,0.0,2.0,98,0.01,,---,0.01,VWS V13.01,2013-07-29 05:45:00,
2013-07-29 01:47:00,70.2,69.6,29.96,West,280,0.0,2.0,98,0.01,,---,0.01,VWS V13.01,2013-07-29 05:47:00,
2013-07-29 01:48:00,70.1,69.5,29.96,West,280,0.0,2.0,98,0.01,,---,0.01,VWS V13.01,2013-07-29 05:48:00,
2013-07-29 01:49:00,70.2,69.6,29.97,West,280,0.0,2.0,98,0.01,,---,0.01,VWS V13.01,2013-07-29 05:49:00,
2013-07-29 01:50:00,70.2,69.6,29.97,West,280,0.0,2.0,98,0.01,,---,0.01,VWS V13.01,2013-07-29 05:50:00,
2013-07-29 01:52:00,70.2,69.6,29.97,West,280,0.0,2.0,98,0.01,,---,0.01,VWS V13.01,2013-07-29 05:52:00,
2013-07-29 01:53:00,70.2,69.6,29.97,West,280,0.0,2.0,98,0.01,,---,0.01,VWS V13.01,2013-07-29 05:53:00,
2013-07-29 01:54:00,70.2,69.6,29.97,West,280,0.0,2.0,98,0.01,,---,0.01,VWS V13.01,2013-07-29 05:54:00,
2013-07-29 01:55:00,70.2,69.6,29.97,West,280,0.0,2.0,98,0.01,,---,0.01,VWS V13.01,2013-07-29 05:55:00,
2013-07-29 01:57:00,70.2,69.6,29.96,West,280,0.0,2.0,98,0.01,,---,0.01,VWS V13.01,2013-07-29 05:57:00,
2013-07-29 01:58:00,70.2,69.6,29.96,West,280,0.0,2.0,98,0.01,,---,0.01,VWS V13.01,2013-07-29 05:58:00,
2013-07-29 01:59:00,70.2,69.6,29.96,West,280,0.0,2.0,98,0.01,,---,0.01,VWS V13.01,2013-07-29 05:59:00,
2013-07-29 02:00:00,70.2,69.6,29.96,West,280,0.0,2.0,98,0.01,,---,0.01,VWS V13.01,2013-07-29 06:00:00,
2013-07-29 02:02:00,70.2,69.6,29.96,West,280,0.0,0.0,98,0.01,,---,0.01,VWS V13.01,2013-07-29 06:02:00,
2013-07-29 02:03:00,70.2,69.6,29.96,West,280,0.0,0.0,98,0.01,,---,0.01,VWS V13.01,2013-07-29 06:03:00,
2013-07-29 02:04:00,70.2,69.6,29.96,West,280,0.0,0.0,98,0.01,,---,0.01,VWS V13.01,2013-07-29 06:04:00,
2013-07-29 02:05:00,70.3,69.7,29.96,West,280,0.0,0.0,98,0.01,,---,0.02,VWS V13.01,2013-07-29 06:05:00,
2013-07-29 02:07:00,70.3,69.7,29.96,West,280,0.0,0.0,98,0.02,,---,0.02,VWS V13.01,2013-07-29 06:07:00,
2013-07-29 02:09:00,70.3,69.7,29.96,West,280,0.0,0.0,98,0.02,,---,0.02,VWS V13.01,2013-07-29 06:09:00,
2013-07-29 02:10:00,70.4,69.8,29.96,West,280,0.0,1.0,98,0.02,,---,0.02,VWS V13.01,2013-07-29 06:10:00,
2013-07-29 02:12:00,70.4,69.8,29.96,West,280,0.0,1.0,98,0.02,,---,0.02,VWS V13.01,2013-07-29 06:12:00,
2013-07-29 02:14:00,70.4,69.8,29.96,West,280,0.0,1.0,98,0.03,,---,0.05,VWS V13.01,2013-07-29 06:14:00,
2013-07-29 02:15:00,70.4,69.8,29.96,West,280,0.0,1.0,98,0.06,,---,0.06,VWS V13.01,2013-07-29 06:15:00,
2013-07-29 02:18:00,70.3,69.7,29.96,West,280,0.0,1.0,98,0.08,,---,0.08,VWS V13.01,2013-07-29 06:18:00,
2013-07-29 02:19:00,70.3,69.7,29.96,West,280,0.0,1.0,98,0.08,,---,0.09,VWS V13.01,2013-07-29 06:19:00,
2013-07-29 02:20:00,70.3,69.7,29.96,West,280,0.0,1.0,98,0.09,,---,0.09,VWS V13.01,2013-07-29 06:20:00,
2013-07-29 02:23:00,70.3,69.7,29.95,West,280,0.0,3.0,98,0.09,,---,0.09,VWS V13.01,2013-07-29 06:23:00,
2013-07-29 02:24:00,70.2,69.6,29.95,West,280,0.0,3.0,98,0.09,,---,0.09,VWS V13.01,2013-07-29 06:24:00,
2013-07-29 02:26:00,70.2,69.6,29.95,NNE,27,0.0,5.0,98,0.09,,---,0.09,VWS V13.01,2013-07-29 06:26:00,
2013-07-29 02:28:00,70.1,69.5,29.95,NNE,18,0.0,5.0,98,0.09,,---,0.09,VWS V13.01,2013-07-29 06:28:00,
2013-07-29 02:29:00,70.0,69.4,29.95,NNE,18,1.0,5.0,98,0.09,,---,0.09,VWS V13.01,2013-07-29 06:29:00,
2013-07-29 02:31:00,69.9,69.3,29.95,NNE,17,1.0,5.0,98,0.09,,---,0.09,VWS V13.01,2013-07-29 06:31:00,
2013-07-29 02:33:00,69.7,69.1,29.95,NNE,20,0.0,2.0,98,0.08,,---,0.09,VWS V13.01,2013-07-29 06:33:00,
2013-07-29 02:34:00,69.7,69.1,29.95,NNE,19,0.0,2.0,98,0.08,,---,0.09,VWS V13.01,2013-07-29 06:34:00,
2013-07-29 02:36:00,69.5,68.9,29.95,NNE,18,0.0,2.0,98,0.08,,---,0.09,VWS V13.01,2013-07-29 06:36:00,
2013-07-29 02:38:00,69.4,68.8,29.95,NNE,19,0.0,2.0,98,0.08,,---,0.09,VWS V13.01,2013-07-29 06:38:00,
2013-07-29 02:39:00,69.4,68.8,29.95,NNE,19,0.0,2.0,98,0.08,,---,0.09,VWS V13.01,2013-07-29 06:39:00,
2013-07-29 02:41:00,69.3,68.7,29.95,NNE,19,0.0,2.0,98,0.08,,---,0.09,VWS V13.01,2013-07-29 06:41:00,
2013-07-29 02:43:00,69.1,68.5,29.95,NNE,19,0.0,2.0,98,0.08,,---,0.09,VWS V13.01,2013-07-29 06:43:00,
2013-07-29 02:44:00,69.1,68.5,29.95,NNE,18,0.0,2.0,98,0.08,,---,0.09,VWS V13.01,2013-07-29 06:44:00,
2013-07-29 02:46:00,69.0,68.1,29.94,NNE,19,0.0,2.0,97,0.08,,---,0.09,VWS V13.01,2013-07-29 06:46:00,
2013-07-29 02:47:00,68.9,68.0,29.94,NNE,19,0.0,2.0,97,0.08,,---,0.09,VWS V13.01,2013-07-29 06:47:00,
2013-07-29 02:48:00,68.8,67.9,29.95,NNE,19,0.0,2.0,97,0.08,,---,0.09,VWS V13.01,2013-07-29 06:48:00,
2013-07-29 02:49:00,68.8,67.9,29.95,NNE,19,0.0,2.0,97,0.08,,---,0.09,VWS V13.01,2013-07-29 06:49:00,
2013-07-29 02:52:00,68.6,68.0,29.95,NNE,19,0.0,2.0,98,0.08,,---,0.09,VWS V13.01,2013-07-29 06:52:00,
2013-07-29 02:53:00,68.6,68.0,29.95,NNE,18,0.0,2.0,98,0.08,,---,0.09,VWS V13.01,2013-07-29 06:53:00,
2013-07-29 02:54:00,68.5,67.9,29.95,NNE,18,0.0,2.0,98,0.08,,---,0.09,VWS V13.01,2013-07-29 06:54:00,
2013-07-29 02:55:00,68.5,67.9,29.95,NNE,19,0.0,2.0,98,0.08,,---,0.09,VWS V13.01,2013-07-29 06:55:00,
2013-07-29 02:57:00,68.5,67.9,29.95,NNE,18,0.0,2.0,98,0.08,,---,0.09,VWS V13.01,2013-07-29 06:57:00,
2013-07-29 02:59:00,68.4,67.8,29.95,NNE,19,0.0,2.0,98,0.08,,---,0.09,VWS V13.01,2013-07-29 06:59:00,
2013-07-29 03:00:00,68.4,67.8,29.95,NNE,18,0.0,2.0,98,0.08,,---,0.09,VWS V13.01,2013-07-29 07:00:00,
2013-07-29 03:02:00,68.4,67.8,29.95,NNE,18,0.0,0.0,98,0.08,,---,0.09,VWS V13.01,2013-07-29 07:02:00,
2013-07-29 03:04:00,68.4,67.8,29.95,NNE,19,0.0,0.0,98,0.08,,---,0.09,VWS V13.01,2013-07-29 07:04:00,
2013-07-29 03:05:00,68.4,67.8,29.95,NNE,18,0.0,0.0,98,0.08,,---,0.09,VWS V13.01,2013-07-29 07:05:00,
2013-07-29 03:07:00,68.5,67.9,29.95,NNE,19,0.0,0.0,98,0.08,,---,0.09,VWS V13.01,2013-07-29 07:07:00,
2013-07-29 03:09:00,68.5,67.9,29.95,NNE,19,0.0,0.0,98,0.08,,---,0.09,VWS V13.01,2013-07-29 07:09:00,
2013-07-29 03:11:00,68.5,67.9,29.95,NNE,19,0.0,0.0,98,0.08,,---,0.09,VWS V13.01,2013-07-29 07:11:00,
2013-07-29 03:12:00,68.5,67.9,29.95,NNE,19,0.0,0.0,98,0.08,,---,0.09,VWS V13.01,2013-07-29 07:12:00,
2013-07-29 03:13:00,68.6,68.0,29.95,NNE,18,0.0,0.0,98,0.08,,---,0.09,VWS V13.01,2013-07-29 07:13:00,
2013-07-29 03:14:00,68.6,68.0,29.95,NNE,19,0.0,0.0,98,0.08,,---,0.09,VWS V13.01,2013-07-29 07:14:00,
2013-07-29 03:16:00,68.5,67.9,29.95,NNE,19,0.0,0.0,98,0.08,,---,0.09,VWS V13.01,2013-07-29 07:16:00,
2013-07-29 03:17:00,68.5,67.9,29.95,NNE,19,0.0,0.0,98,0.08,,---,0.09,VWS V13.01,2013-07-29 07:17:00,
2013-07-29 03:19:00,68.4,67.8,29.95,NNE,19,0.0,0.0,98,0.08,,---,0.09,VWS V13.01,2013-07-29 07:19:00,
2013-07-29 03:20:00,68.3,67.7,29.95,NNE,19,0.0,0.0,98,0.08,,---,0.09,VWS V13.01,2013-07-29 07:20:00,
2013-07-29 03:21:00,68.2,67.6,29.95,NNE,19,0.0,0.0,98,0.08,,---,0.09,VWS V13.01,2013-07-29 07:21:00,
2013-07-29 03:22:00,68.1,67.5,29.95,NNE,18,0.0,0.0,98,0.08,,---,0.09,VWS V13.01,2013-07-29 07:22:00,
2013-07-29 03:24:00,68.1,67.5,29.95,NNE,19,0.0,0.0,98,0.08,,---,0.09,VWS V13.01,2013-07-29 07:24:00,
2013-07-29 03:25:00,68.1,67.5,29.95,NNE,19,0.0,0.0,98,0.08,,---,0.09,VWS V13.01,2013-07-29 07:25:00,
2013-07-29 03:26:00,68.1,67.5,29.95,NNE,18,0.0,0.0,98,0.08,,---,0.09,VWS V13.01,2013-07-29 07:26:00,
2013-07-29 03:28:00,68.1,67.5,29.95,NNE,18,0.0,0.0,98,0.08,,---,0.09,VWS V13.01,2013-07-29 07:28:00,
2013-07-29 03:29:00,68.1,67.5,29.95,NNE,19,0.0,0.0,98,0.08,,---,0.09,VWS V13.01,2013-07-29 07:29:00,
2013-07-29 03:30:00,68.1,67.5,29.95,NNE,19,0.0,0.0,98,0.08,,---,0.09,VWS V13.01,2013-07-29 07:30:00,
2013-07-29 03:31:00,68.1,67.5,29.95,NNE,19,0.0,0.0,98,0.08,,---,0.09,VWS V13.01,2013-07-29 07:31:00,
2013-07-29 03:33:00,68.1,67.5,29.95,NNE,19,0.0,1.0,98,0.00,,---,0.09,VWS V13.01,2013-07-29 07:33:00,
2013-07-29 03:34:00,68.1,67.5,29.95,NNE,18,0.0,1.0,98,0.00,,---,0.09,VWS V13.01,2013-07-29 07:34:00,
2013-07-29 03:35:00,68.0,67.4,29.95,NNE,19,0.0,1.0,98,0.00,,---,0.09,VWS V13.01,2013-07-29 07:35:00,
2013-07-29 03:38:00,68.0,67.4,29.95,NNE,19,0.0,1.0,98,0.00,,---,0.09,VWS V13.01,2013-07-29 07:38:00,
2013-07-29 03:39:00,67.9,67.3,29.95,NNE,18,0.0,1.0,98,0.00,,---,0.09,VWS V13.01,2013-07-29 07:39:00,
2013-07-29 03:40:00,67.9,67.3,29.95,NNE,19,0.0,1.0,98,0.00,,---,0.09,VWS V13.01,2013-07-29 07:40:00,
2013-07-29 03:43:00,67.8,67.2,29.95,NNE,19,0.0,1.0,98,0.00,,---,0.09,VWS V13.01,2013-07-29 07:43:00,
2013-07-29 03:44:00,67.7,67.1,29.95,NNE,19,0.0,1.0,98,0.00,,---,0.09,VWS V13.01,2013-07-29 07:44:00,
2013-07-29 03:45:00,67.7,67.1,29.95,NNE,19,0.0,1.0,98,0.00,,---,0.09,VWS V13.01,2013-07-29 07:45:00,
2013-07-29 03:48:00,67.6,67.0,29.95,NNE,19,0.0,1.0,98,0.00,,---,0.09,VWS V13.01,2013-07-29 07:48:00,
2013-07-29 03:49:00,67.6,67.0,29.95,NNE,19,0.0,1.0,98,0.00,,---,0.09,VWS V13.01,2013-07-29 07:49:00,
2013-07-29 03:50:00,67.5,66.9,29.95,NNE,19,0.0,1.0,98,0.00,,---,0.09,VWS V13.01,2013-07-29 07:50:00,
2013-07-29 03:54:00,67.3,66.7,29.95,NNE,19,0.0,1.0,98,0.00,,---,0.09,VWS V13.01,2013-07-29 07:54:00,
2013-07-29 03:55:00,67.2,66.6,29.95,NNE,19,0.0,1.0,98,0.00,,---,0.09,VWS V13.01,2013-07-29 07:55:00,
2013-07-29 03:56:00,67.2,66.6,29.95,NNE,19,0.0,1.0,98,0.00,,---,0.09,VWS V13.01,2013-07-29 07:56:00,
2013-07-29 03:59:00,67.2,66.6,29.95,NNE,18,0.0,1.0,98,0.00,,---,0.09,VWS V13.01,2013-07-29 07:59:00,
2013-07-29 04:00:00,67.2,66.6,29.95,NNE,19,0.0,1.0,98,0.00,,---,0.09,VWS V13.01,2013-07-29 08:00:00,
2013-07-29 04:01:00,67.2,66.6,29.95,NNE,19,0.0,1.0,98,0.00,,---,0.09,VWS V13.01,2013-07-29 08:01:00,
2013-07-29 04:04:00,67.3,66.7,29.96,NNE,18,0.0,0.0,98,0.00,,---,0.09,VWS V13.01,2013-07-29 08:04:00,
2013-07-29 04:05:00,67.2,66.6,29.96,NNE,19,0.0,0.0,98,0.00,,---,0.09,VWS V13.01,2013-07-29 08:05:00,
2013-07-29 04:06:00,67.2,66.6,29.96,NNE,19,0.0,0.0,98,0.00,,---,0.09,VWS V13.01,2013-07-29 08:06:00,
2013-07-29 04:09:00,67.1,66.5,29.96,NNE,19,0.0,0.0,98,0.00,,---,0.09,VWS V13.01,2013-07-29 08:09:00,
2013-07-29 04:10:00,67.1,66.5,29.96,NNE,19,0.0,0.0,98,0.00,,---,0.09,VWS V13.01,2013-07-29 08:10:00,
2013-07-29 04:11:00,67.1,66.5,29.96,NNE,18,0.0,0.0,98,0.00,,---,0.09,VWS V13.01,2013-07-29 08:11:00,
2013-07-29 04:14:00,67.0,66.4,29.96,NNE,19,0.0,1.0,98,0.00,,---,0.09,VWS V13.01,2013-07-29 08:14:00,
2013-07-29 04:15:00,67.0,66.4,29.96,NNE,18,0.0,1.0,98,0.00,,---,0.09,VWS V13.01,2013-07-29 08:15:00,
2013-07-29 04:16:00,67.1,66.5,29.96,NNE,19,0.0,1.0,98,0.00,,---,0.09,VWS V13.01,2013-07-29 08:16:00,
2013-07-29 04:17:00,67.0,66.4,29.96,NNE,19,0.0,1.0,98,0.00,,---,0.09,VWS V13.01,2013-07-29 08:17:00,
2013-07-29 04:19:00,66.9,66.3,29.96,NNE,19,0.0,1.0,98,0.00,,---,0.09,VWS V13.01,2013-07-29 08:19:00,
2013-07-29 04:20:00,67.0,66.4,29.96,NNE,19,0.0,1.0,98,0.00,,---,0.09,VWS V13.01,2013-07-29 08:20:00,
2013-07-29 04:22:00,67.0,66.4,29.96,NNE,19,0.0,1.0,98,0.00,,---,0.09,VWS V13.01,2013-07-29 08:22:00,
2013-07-29 04:25:00,67.0,66.4,29.96,NNE,18,0.0,1.0,98,0.00,,---,0.09,VWS V13.01,2013-07-29 08:25:00,
2013-07-29 04:26:00,67.0,66.4,29.96,NNE,19,0.0,1.0,98,0.00,,---,0.09,VWS V13.01,2013-07-29 08:26:00,
2013-07-29 04:27:00,67.0,66.4,29.96,NNE,19,0.0,1.0,98,0.00,,---,0.09,VWS V13.01,2013-07-29 08:27:00,
2013-07-29 04:30:00,66.8,66.2,29.96,NNE,18,0.0,1.0,98,0.00,,---,0.09,VWS V13.01,2013-07-29 08:30:00,
2013-07-29 04:31:00,66.8,66.2,29.96,NNE,19,0.0,1.0,98,0.00,,---,0.09,VWS V13.01,2013-07-29 08:31:00,
2013-07-29 04:32:00,66.8,66.2,29.96,NNE,18,0.0,0.0,98,0.00,,---,0.09,VWS V13.01,2013-07-29 08:32:00,
2013-07-29 04:33:00,66.8,66.2,29.96,NNE,19,0.0,0.0,98,0.00,,---,0.09,VWS V13.01,2013-07-29 08:33:00,
2013-07-29 04:35:00,66.8,66.2,29.96,NNE,19,0.0,0.0,98,0.00,,---,0.09,VWS V13.01,2013-07-29 08:35:00,
2013-07-29 04:37:00,66.8,66.5,29.96,NNE,19,0.0,0.0,99,0.00,,---,0.09,VWS V13.01,2013-07-29 08:37:00,
2013-07-29 04:38:00,66.8,66.5,29.96,NNE,19,0.0,0.0,99,0.00,,---,0.09,VWS V13.01,2013-07-29 08:38:00,
2013-07-29 04:40:00,66.8,66.5,29.96,NNE,19,0.0,0.0,99,0.00,,---,0.09,VWS V13.01,2013-07-29 08:40:00,
2013-07-29 04:42:00,66.7,66.4,29.96,NNE,19,0.0,0.0,99,0.00,,---,0.09,VWS V13.01,2013-07-29 08:42:00,
2013-07-29 04:43:00,66.7,66.4,29.96,NNE,19,0.0,0.0,99,0.00,,---,0.09,VWS V13.01,2013-07-29 08:43:00,
2013-07-29 04:45:00,66.7,66.4,29.96,NNE,19,0.0,0.0,99,0.00,,---,0.09,VWS V13.01,2013-07-29 08:45:00,
2013-07-29 04:47:00,66.7,66.4,29.96,NNE,19,0.0,0.0,99,0.00,,---,0.09,VWS V13.01,2013-07-29 08:47:00,
2013-07-29 04:48:00,66.7,66.4,29.97,NNE,18,0.0,0.0,99,0.00,,---,0.09,VWS V13.01,2013-07-29 08:48:00,
2013-07-29 04:50:00,66.7,66.4,29.97,NNE,19,0.0,0.0,99,0.00,,---,0.09,VWS V13.01,2013-07-29 08:50:00,
2013-07-29 04:53:00,66.6,66.0,29.97,NNE,18,0.0,0.0,98,0.00,,---,0.09,VWS V13.01,2013-07-29 08:53:00,
2013-07-29 04:55:00,66.5,65.9,29.97,NNE,19,0.0,0.0,98,0.00,,---,0.09,VWS V13.01,2013-07-29 08:55:00,
2013-07-29 04:58:00,66.3,65.7,29.97,NNE,18,0.0,0.0,98,0.00,,---,0.09,VWS V13.01,2013-07-29 08:58:00,
2013-07-29 04:59:00,66.3,65.7,29.97,NNE,19,0.0,0.0,98,0.00,,---,0.09,VWS V13.01,2013-07-29 08:59:00,
2013-07-29 05:00:00,66.2,65.9,29.97,NNE,19,0.0,0.0,99,0.00,,---,0.09,VWS V13.01,2013-07-29 09:00:00,
2013-07-29 05:01:00,66.2,65.9,29.97,NNE,19,0.0,0.0,99,0.00,,---,0.09,VWS V13.01,2013-07-29 09:01:00,
2013-07-29 05:03:00,66.2,65.9,29.97,NNE,19,0.0,0.0,99,0.00,,---,0.09,VWS V13.01,2013-07-29 09:03:00,
2013-07-29 05:04:00,66.3,66.0,29.97,NNE,19,0.0,0.0,99,0.00,,---,0.09,VWS V13.01,2013-07-29 09:04:00,
2013-07-29 05:05:00,66.3,66.0,29.97,NNE,18,0.0,0.0,99,0.00,,---,0.09,VWS V13.01,2013-07-29 09:05:00,
2013-07-29 05:07:00,66.3,66.0,29.97,NNE,18,0.0,0.0,99,0.00,,---,0.09,VWS V13.01,2013-07-29 09:07:00,
2013-07-29 05:08:00,66.3,66.0,29.97,NNE,19,0.0,0.0,99,0.00,,---,0.09,VWS V13.01,2013-07-29 09:08:00,
2013-07-29 05:09:00,66.4,66.1,29.97,NNE,18,0.0,1.0,99,0.00,,---,0.09,VWS V13.01,2013-07-29 09:09:00,
2013-07-29 05:10:00,66.4,66.1,29.97,NNE,19,0.0,1.0,99,0.00,,---,0.09,VWS V13.01,2013-07-29 09:10:00,
2013-07-29 05:12:00,66.4,66.1,29.97,NNE,19,0.0,1.0,99,0.00,,---,0.09,VWS V13.01,2013-07-29 09:12:00,
2013-07-29 05:13:00,66.4,66.1,29.97,NNE,18,0.0,1.0,99,0.00,,---,0.09,VWS V13.01,2013-07-29 09:13:00,
2013-07-29 05:14:00,66.4,66.1,29.98,NNE,19,0.0,1.0,99,0.00,,---,0.09,VWS V13.01,2013-07-29 09:14:00,
2013-07-29 05:15:00,66.4,66.1,29.97,NNE,18,0.0,1.0,99,0.00,,---,0.09,VWS V13.01,2013-07-29 09:15:00,
2013-07-29 05:17:00,66.4,66.1,29.98,NNE,19,0.0,1.0,99,0.00,,---,0.09,VWS V13.01,2013-07-29 09:17:00,
2013-07-29 05:18:00,66.4,66.1,29.98,NNE,19,0.0,1.0,99,0.00,,---,0.09,VWS V13.01,2013-07-29 09:18:00,
2013-07-29 05:20:00,66.4,66.1,29.98,NNE,18,0.0,1.0,99,0.00,,---,0.09,VWS V13.01,2013-07-29 09:20:00,
2013-07-29 05:22:00,66.4,66.1,29.98,NNE,19,0.0,1.0,99,0.00,,---,0.09,VWS V13.01,2013-07-29 09:22:00,
2013-07-29 05:23:00,66.4,66.1,29.98,NNE,18,0.0,1.0,99,0.00,,---,0.09,VWS V13.01,2013-07-29 09:23:00,
2013-07-29 05:25:00,66.4,66.1,29.98,NNE,19,0.0,1.0,99,0.00,,---,0.09,VWS V13.01,2013-07-29 09:25:00,
2013-07-29 05:27:00,66.3,66.0,29.98,NNE,18,0.0,1.0,99,0.00,,---,0.09,VWS V13.01,2013-07-29 09:27:00,
2013-07-29 05:28:00,66.3,66.0,29.98,NNE,18,0.0,1.0,99,0.00,,---,0.09,VWS V13.01,2013-07-29 09:28:00,
2013-07-29 05:30:00,66.3,66.0,29.98,NNE,19,0.0,1.0,99,0.00,,---,0.09,VWS V13.01,2013-07-29 09:30:00,
2013-07-29 05:32:00,66.3,66.0,29.98,NNE,19,0.0,0.0,99,0.00,,---,0.09,VWS V13.01,2013-07-29 09:32:00,
2013-07-29 05:33:00,66.3,66.0,29.98,NNE,19,0.0,0.0,99,0.00,,---,0.09,VWS V13.01,2013-07-29 09:33:00,
2013-07-29 05:35:00,66.2,65.9,29.98,NNE,19,0.0,0.0,99,0.00,,---,0.09,VWS V13.01,2013-07-29 09:35:00,
2013-07-29 05:37:00,66.2,65.9,29.99,NNE,19,0.0,0.0,99,0.00,,---,0.09,VWS V13.01,2013-07-29 09:37:00,
2013-07-29 05:38:00,66.2,65.9,29.99,NNE,18,0.0,0.0,99,0.00,,---,0.09,VWS V13.01,2013-07-29 09:38:00,
2013-07-29 05:40:00,66.2,65.9,29.99,NNE,18,0.0,0.0,99,0.00,,---,0.09,VWS V13.01,2013-07-29 09:40:00,
2013-07-29 05:41:00,66.2,65.9,29.99,NNE,19,0.0,0.0,99,0.00,,---,0.09,VWS V13.01,2013-07-29 09:41:00,
2013-07-29 05:43:00,66.2,65.9,29.99,NNE,19,0.0,0.0,99,0.00,,---,0.09,VWS V13.01,2013-07-29 09:43:00,
2013-07-29 05:44:00,66.1,65.8,29.99,NNE,19,0.0,0.0,99,0.00,,---,0.09,VWS V13.01,2013-07-29 09:44:00,
2013-07-29 05:45:00,66.1,65.8,29.99,NNE,18,0.0,0.0,99,0.00,,---,0.09,VWS V13.01,2013-07-29 09:45:00,
2013-07-29 05:47:00,66.1,65.8,29.99,NNE,18,0.0,0.0,99,0.00,,---,0.09,VWS V13.01,2013-07-29 09:47:00,
2013-07-29 05:48:00,66.1,65.8,29.99,NNE,18,0.0,0.0,99,0.00,,---,0.09,VWS V13.01,2013-07-29 09:48:00,
2013-07-29 05:49:00,66.1,65.8,29.99,NNE,18,0.0,0.0,99,0.00,,---,0.09,VWS V13.01,2013-07-29 09:49:00,
2013-07-29 05:50:00,66.0,65.7,29.99,NNE,19,0.0,0.0,99,0.00,,---,0.09,VWS V13.01,2013-07-29 09:50:00,
2013-07-29 05:52:00,66.0,65.7,29.99,NNE,19,0.0,1.0,99,0.00,,---,0.09,VWS V13.01,2013-07-29 09:52:00,
2013-07-29 05:53:00,66.0,65.7,29.99,NNE,19,0.0,1.0,99,0.00,,---,0.09,VWS V13.01,2013-07-29 09:53:00,
2013-07-29 05:54:00,66.0,65.7,29.99,NNE,19,0.0,1.0,99,0.00,,---,0.09,VWS V13.01,2013-07-29 09:54:00,
2013-07-29 05:55:00,66.0,65.7,29.99,NNE,19,0.0,1.0,99,0.00,,---,0.09,VWS V13.01,2013-07-29 09:55:00,
2013-07-29 05:57:00,65.9,65.3,29.99,NNE,19,0.0,1.0,98,0.00,,---,0.09,VWS V13.01,2013-07-29 09:57:00,
2013-07-29 05:59:00,65.9,65.3,29.99,NNE,18,0.0,1.0,98,0.00,,---,0.09,VWS V13.01,2013-07-29 09:59:00,
2013-07-29 06:00:00,65.9,65.3,29.99,NNE,19,0.0,1.0,98,0.00,,---,0.09,VWS V13.01,2013-07-29 10:00:00,
2013-07-29 06:02:00,65.9,65.3,29.99,NNE,19,0.0,0.0,98,0.00,,---,0.09,VWS V13.01,2013-07-29 10:02:00,
2013-07-29 06:04:00,65.8,65.2,30.00,NNE,19,0.0,0.0,98,0.00,,---,0.09,VWS V13.01,2013-07-29 10:04:00,
2013-07-29 06:06:00,65.8,65.2,30.00,NNE,19,0.0,0.0,98,0.00,,---,0.09,VWS V13.01,2013-07-29 10:06:00,
2013-07-29 06:07:00,65.8,65.2,30.00,NNE,18,0.0,0.0,98,0.00,,---,0.09,VWS V13.01,2013-07-29 10:07:00,
2013-07-29 06:09:00,65.8,65.2,30.00,NNE,19,0.0,0.0,98,0.00,,---,0.09,VWS V13.01,2013-07-29 10:09:00,
2013-07-29 06:10:00,65.7,65.1,30.00,NNE,18,0.0,1.0,98,0.00,,---,0.09,VWS V13.01,2013-07-29 10:10:00,
2013-07-29 06:11:00,65.7,65.1,30.00,NNE,19,0.0,1.0,98,0.00,,---,0.09,VWS V13.01,2013-07-29 10:11:00,
2013-07-29 06:13:00,65.7,65.1,30.00,NNE,19,0.0,1.0,98,0.00,,---,0.09,VWS V13.01,2013-07-29 10:13:00,
2013-07-29 06:14:00,65.7,65.1,30.00,NNE,19,0.0,1.0,98,0.00,,---,0.09,VWS V13.01,2013-07-29 10:14:00,
2013-07-29 06:15:00,65.7,65.1,30.00,NNE,19,0.0,1.0,98,0.00,,---,0.09,VWS V13.01,2013-07-29 10:15:00,
2013-07-29 06:16:00,65.6,65.0,30.00,NNE,19,0.0,1.0,98,0.00,,---,0.09,VWS V13.01,2013-07-29 10:16:00,
2013-07-29 06:18:00,65.6,65.3,30.00,NNE,19,0.0,1.0,99,0.00,,---,0.09,VWS V13.01,2013-07-29 10:18:00,
2013-07-29 06:19:00,65.6,65.3,30.00,NNE,19,0.0,1.0,99,0.00,,---,0.09,VWS V13.01,2013-07-29 10:19:00,
2013-07-29 06:21:00,65.6,65.3,30.00,NNE,18,0.0,1.0,99,0.00,,---,0.09,VWS V13.01,2013-07-29 10:21:00,
2013-07-29 06:22:00,65.6,65.3,30.00,NNE,18,0.0,1.0,99,0.00,,---,0.09,VWS V13.01,2013-07-29 10:22:00,
2013-07-29 06:24:00,65.6,65.3,30.00,NNE,19,0.0,1.0,99,0.00,,---,0.09,VWS V13.01,2013-07-29 10:24:00,
2013-07-29 06:25:00,65.6,65.3,30.00,NNE,19,0.0,1.0,99,0.00,,---,0.09,VWS V13.01,2013-07-29 10:25:00,
2013-07-29 06:26:00,65.6,65.3,30.00,NNE,19,0.0,1.0,99,0.00,,---,0.09,VWS V13.01,2013-07-29 10:26:00,
2013-07-29 06:27:00,65.5,65.2,30.00,NNE,19,0.0,1.0,99,0.00,,---,0.09,VWS V13.01,2013-07-29 10:27:00,
2013-07-29 06:29:00,65.5,65.2,30.00,NNE,19,0.0,1.0,99,0.00,,---,0.09,VWS V13.01,2013-07-29 10:29:00,
2013-07-29 06:30:00,65.5,65.2,30.00,NNE,19,0.0,1.0,99,0.00,,---,0.09,VWS V13.01,2013-07-29 10:30:00,
2013-07-29 06:32:00,65.5,65.2,30.00,NNE,18,0.0,0.0,99,0.00,,---,0.09,VWS V13.01,2013-07-29 10:32:00,
2013-07-29 06:34:00,65.5,65.2,30.00,NNE,18,0.0,1.0,99,0.00,,---,0.09,VWS V13.01,2013-07-29 10:34:00,
2013-07-29 06:35:00,65.4,65.1,30.00,NNE,19,0.0,1.0,99,0.00,,---,0.09,VWS V13.01,2013-07-29 10:35:00,
2013-07-29 06:37:00,65.4,65.1,30.00,NNE,19,0.0,1.0,99,0.00,,---,0.09,VWS V13.01,2013-07-29 10:37:00,
2013-07-29 06:39:00,65.4,65.1,30.00,NNE,19,0.0,1.0,99,0.00,,---,0.09,VWS V13.01,2013-07-29 10:39:00,
2013-07-29 06:41:00,65.4,65.1,30.01,NNE,18,0.0,1.0,99,0.00,,---,0.09,VWS V13.01,2013-07-29 10:41:00,
2013-07-29 06:43:00,65.4,65.1,30.01,NNE,19,0.0,1.0,99,0.00,,---,0.09,VWS V13.01,2013-07-29 10:43:00,
2013-07-29 06:44:00,65.4,65.1,30.01,NNE,18,0.0,1.0,99,0.00,,---,0.09,VWS V13.01,2013-07-29 10:44:00,
2013-07-29 06:48:00,65.3,64.7,30.01,NNE,19,0.0,1.0,98,0.00,,---,0.09,VWS V13.01,2013-07-29 10:48:00,
2013-07-29 06:49:00,65.3,64.7,30.01,NNE,19,0.0,1.0,98,0.00,,---,0.09,VWS V13.01,2013-07-29 10:49:00,
2013-07-29 06:50:00,65.3,64.7,30.01,NNE,19,0.0,1.0,98,0.00,,---,0.09,VWS V13.01,2013-07-29 10:50:00,
2013-07-29 06:53:00,65.3,64.7,30.01,NNE,19,0.0,1.0,98,0.00,,---,0.09,VWS V13.01,2013-07-29 10:53:00,
2013-07-29 06:54:00,65.3,64.7,30.01,NNE,19,0.0,1.0,98,0.00,,---,0.09,VWS V13.01,2013-07-29 10:54:00,
2013-07-29 06:55:00,65.3,64.7,30.01,NNE,18,0.0,1.0,98,0.00,,---,0.09,VWS V13.01,2013-07-29 10:55:00,
2013-07-29 06:59:00,65.3,64.7,30.01,NNE,19,0.0,1.0,98,0.00,,---,0.09,VWS V13.01,2013-07-29 10:59:00,
2013-07-29 07:00:00,65.3,64.7,30.01,NNE,18,0.0,1.0,98,0.00,,---,0.09,VWS V13.01,2013-07-29 11:00:00,
2013-07-29 07:01:00,65.3,64.7,30.01,NNE,19,0.0,1.0,98,0.00,,---,0.09,VWS V13.01,2013-07-29 11:01:00,
2013-07-29 07:04:00,65.4,65.1,30.01,NNE,19,0.0,0.0,99,0.00,,---,0.09,VWS V13.01,2013-07-29 11:04:00,
2013-07-29 07:05:00,65.4,65.1,30.01,NNE,19,0.0,0.0,99,0.00,,---,0.09,VWS V13.01,2013-07-29 11:05:00,
2013-07-29 07:06:00,65.4,65.1,30.01,NNE,19,0.0,0.0,99,0.00,,---,0.09,VWS V13.01,2013-07-29 11:06:00,
2013-07-29 07:10:00,65.4,65.1,30.01,NNE,19,0.0,1.0,99,0.00,,---,0.09,VWS V13.01,2013-07-29 11:10:00,
2013-07-29 07:11:00,65.4,65.1,30.01,NNE,19,0.0,1.0,99,0.00,,---,0.09,VWS V13.01,2013-07-29 11:11:00,
2013-07-29 07:12:00,65.4,65.1,30.01,NNE,18,0.0,1.0,99,0.00,,---,0.09,VWS V13.01,2013-07-29 11:12:00,
2013-07-29 07:14:00,65.5,65.2,30.01,NNE,18,0.0,1.0,99,0.00,,---,0.09,VWS V13.01,2013-07-29 11:14:00,
2013-07-29 07:15:00,65.5,65.2,30.01,NNE,18,0.0,1.0,99,0.00,,---,0.09,VWS V13.01,2013-07-29 11:15:00,
2013-07-29 07:17:00,65.5,65.2,30.02,NNE,18,0.0,1.0,99,0.00,,---,0.09,VWS V13.01,2013-07-29 11:17:00,
2013-07-29 07:18:00,65.5,65.2,30.02,NNE,19,0.0,1.0,99,0.00,,---,0.09,VWS V13.01,2013-07-29 11:18:00,
2013-07-29 07:19:00,65.5,65.2,30.01,NNE,19,0.0,1.0,99,0.00,,---,0.09,VWS V13.01,2013-07-29 11:19:00,
2013-07-29 07:21:00,65.6,65.3,30.01,NNE,18,0.0,1.0,99,0.00,,---,0.09,VWS V13.01,2013-07-29 11:21:00,
2013-07-29 07:22:00,65.6,65.3,30.01,NNE,19,1.0,1.0,99,0.00,,---,0.09,VWS V13.01,2013-07-29 11:22:00,
2013-07-29 07:23:00,65.6,65.3,30.01,NNE,18,0.0,1.0,99,0.00,,---,0.09,VWS V13.01,2013-07-29 11:23:00,
2013-07-29 07:25:00,65.6,65.3,30.01,NNE,18,0.0,1.0,99,0.00,,---,0.09,VWS V13.01,2013-07-29 11:25:00,
2013-07-29 07:26:00,65.6,65.3,30.02,NNE,18,0.0,1.0,99,0.00,,---,0.09,VWS V13.01,2013-07-29 11:26:00,
2013-07-29 07:27:00,65.6,65.3,30.02,NNE,19,0.0,1.0,99,0.00,,---,0.09,VWS V13.01,2013-07-29 11:27:00,
2013-07-29 07:28:00,65.6,65.3,30.02,NNE,19,0.0,1.0,99,0.00,,---,0.09,VWS V13.01,2013-07-29 11:28:00,
2013-07-29 07:30:00,65.6,65.3,30.02,NNE,19,0.0,1.0,99,0.00,,---,0.09,VWS V13.01,2013-07-29 11:30:00,
2013-07-29 07:32:00,65.6,65.3,30.02,NNE,19,0.0,0.0,99,0.00,,---,0.09,VWS V13.01,2013-07-29 11:32:00,
2013-07-29 07:33:00,65.7,65.4,30.02,NNE,19,0.0,0.0,99,0.00,,---,0.09,VWS V13.01,2013-07-29 11:33:00,
2013-07-29 07:35:00,65.7,65.4,30.02,NNE,19,0.0,1.0,99,0.00,,---,0.09,VWS V13.01,2013-07-29 11:35:00,
2013-07-29 07:37:00,65.7,65.4,30.02,NNE,19,0.0,1.0,99,0.00,,---,0.09,VWS V13.01,2013-07-29 11:37:00,
2013-07-29 07:38:00,65.7,65.4,30.02,NNE,19,0.0,1.0,99,0.00,,---,0.09,VWS V13.01,2013-07-29 11:38:00,
2013-07-29 07:40:00,65.8,65.5,30.02,NNE,19,0.0,1.0,99,0.00,,---,0.09,VWS V13.01,2013-07-29 11:40:00,
2013-07-29 07:43:00,65.9,65.6,30.02,NNE,19,0.0,1.0,99,0.00,,---,0.09,VWS V13.01,2013-07-29 11:43:00,
2013-07-29 07:44:00,65.9,65.6,30.02,NNE,18,0.0,1.0,99,0.00,,---,0.09,VWS V13.01,2013-07-29 11:44:00,
2013-07-29 07:45:00,65.9,65.6,30.02,NNE,19,0.0,1.0,99,0.00,,---,0.09,VWS V13.01,2013-07-29 11:45:00,
2013-07-29 07:48:00,66.0,65.7,30.02,NNE,19,0.0,1.0,99,0.00,,---,0.09,VWS V13.01,2013-07-29 11:48:00,
2013-07-29 07:49:00,66.0,65.7,30.02,NNE,19,0.0,1.0,99,0.00,,---,0.09,VWS V13.01,2013-07-29 11:49:00,
2013-07-29 07:50:00,66.0,65.7,30.02,NNE,18,0.0,1.0,99,0.00,,---,0.09,VWS V13.01,2013-07-29 11:50:00,
2013-07-29 07:54:00,66.0,65.7,30.02,NNE,18,1.0,1.0,99,0.00,,---,0.09,VWS V13.01,2013-07-29 11:54:00,
2013-07-29 07:55:00,66.0,65.7,30.03,NNE,18,0.0,1.0,99,0.00,,---,0.09,VWS V13.01,2013-07-29 11:55:00,
2013-07-29 07:57:00,66.1,65.8,30.03,NNE,18,0.0,2.0,99,0.00,,---,0.09,VWS V13.01,2013-07-29 11:57:00,
2013-07-29 07:59:00,66.1,65.8,30.03,NNE,19,0.0,2.0,99,0.00,,---,0.09,VWS V13.01,2013-07-29 11:59:00,
2013-07-29 08:00:00,66.1,65.8,30.03,NNE,19,0.0,2.0,99,0.00,,---,0.09,VWS V13.01,2013-07-29 12:00:00,
2013-07-29 08:01:00,66.1,65.8,30.03,NNE,18,0.0,2.0,99,0.00,,---,0.09,VWS V13.01,2013-07-29 12:01:00,
2013-07-29 08:02:00,66.2,65.9,30.03,NNE,19,0.0,0.0,99,0.00,,---,0.09,VWS V13.01,2013-07-29 12:02:00,
2013-07-29 08:05:00,66.2,65.9,30.03,NNE,19,0.0,2.0,99,0.00,,---,0.09,VWS V13.01,2013-07-29 12:05:00,
2013-07-29 08:06:00,66.2,65.9,30.03,NNE,18,0.0,2.0,99,0.00,,---,0.09,VWS V13.01,2013-07-29 12:06:00,
2013-07-29 08:07:00,66.2,65.9,30.03,NNE,19,0.0,2.0,99,0.00,,---,0.09,VWS V13.01,2013-07-29 12:07:00,
2013-07-29 08:10:00,66.3,66.0,30.03,NNE,19,0.0,2.0,99,0.00,,---,0.09,VWS V13.01,2013-07-29 12:10:00,
2013-07-29 08:11:00,66.3,66.0,30.03,NNE,18,0.0,2.0,99,0.00,,---,0.09,VWS V13.01,2013-07-29 12:11:00,
2013-07-29 08:12:00,66.3,66.0,30.03,NNE,19,0.0,2.0,99,0.00,,---,0.09,VWS V13.01,2013-07-29 12:12:00,
2013-07-29 08:16:00,66.5,66.2,30.03,NNE,15,0.0,2.0,99,0.00,,---,0.09,VWS V13.01,2013-07-29 12:16:00,
2013-07-29 08:17:00,66.5,66.2,30.03,NNE,15,0.0,2.0,99,0.00,,---,0.09,VWS V13.01,2013-07-29 12:17:00,
2013-07-29 08:22:00,66.7,66.4,30.03,North,9,0.0,6.0,99,0.00,,---,0.09,VWS V13.01,2013-07-29 12:22:00,
2013-07-29 08:23:00,66.7,66.4,30.03,North,9,0.0,6.0,99,0.00,,---,0.09,VWS V13.01,2013-07-29 12:23:00,
2013-07-29 08:27:00,66.8,66.5,30.03,North,350,6.0,6.0,99,0.00,,---,0.09,VWS V13.01,2013-07-29 12:27:00,
2013-07-29 08:28:00,66.8,66.5,30.03,North,355,0.0,6.0,99,0.00,,---,0.09,VWS V13.01,2013-07-29 12:28:00,
2013-07-29 08:33:00,66.5,66.2,30.04,NNE,29,0.0,3.0,99,0.00,,---,0.09,VWS V13.01,2013-07-29 12:33:00,
2013-07-29 08:39:00,66.7,66.4,30.04,NNE,30,0.0,4.0,99,0.00,,---,0.09,VWS V13.01,2013-07-29 12:39:00,
2013-07-29 08:40:00,66.7,66.4,30.04,North,360,0.0,4.0,99,0.00,,---,0.09,VWS V13.01,2013-07-29 12:40:00,
2013-07-29 08:44:00,67.3,66.7,30.04,NE,36,0.0,7.0,98,0.00,,---,0.09,VWS V13.01,2013-07-29 12:44:00,
2013-07-29 08:46:00,67.6,67.0,30.04,NE,38,0.0,7.0,98,0.00,,---,0.09,VWS V13.01,2013-07-29 12:46:00,
2013-07-29 08:49:00,67.9,67.0,30.04,NE,44,0.0,7.0,97,0.00,,---,0.09,VWS V13.01,2013-07-29 12:49:00,
2013-07-29 08:50:00,67.9,67.0,30.04,NE,44,0.0,7.0,97,0.00,,---,0.09,VWS V13.01,2013-07-29 12:50:00,
2013-07-29 08:51:00,68.1,67.2,30.04,NNE,33,0.0,7.0,97,0.00,,---,0.09,VWS V13.01,2013-07-29 12:51:00,
2013-07-29 08:52:00,68.5,67.3,30.04,NE,34,0.0,7.0,96,0.00,,---,0.09,VWS V13.01,2013-07-29 12:52:00,
2013-07-29 08:55:00,69.2,67.4,30.04,NNE,32,0.0,7.0,94,0.00,,---,0.09,VWS V13.01,2013-07-29 12:55:00,
2013-07-29 08:56:00,69.4,67.3,30.04,NNE,32,0.0,7.0,93,0.00,,---,0.09,VWS V13.01,2013-07-29 12:56:00,
2013-07-29 08:57:00,69.4,67.0,30.04,NE,36,0.0,7.0,92,0.00,,---,0.09,VWS V13.01,2013-07-29 12:57:00,
2013-07-29 09:00:00,69.8,67.1,30.04,NE,35,0.0,7.0,91,0.00,,---,0.09,VWS V13.01,2013-07-29 13:00:00,
2013-07-29 09:01:00,69.9,66.8,30.04,ENE,60,0.0,7.0,90,0.00,,---,0.09,VWS V13.01,2013-07-29 13:01:00,
2013-07-29 09:02:00,70.0,66.9,30.04,ENE,60,0.0,0.0,90,0.00,,---,0.09,VWS V13.01,2013-07-29 13:02:00,
2013-07-29 09:05:00,70.2,66.8,30.04,ENE,60,0.0,0.0,89,0.00,,---,0.09,VWS V13.01,2013-07-29 13:05:00,
2013-07-29 09:07:00,70.3,66.6,30.04,ENE,61,0.0,1.0,88,0.00,,---,0.09,VWS V13.01,2013-07-29 13:07:00,
2013-07-29 09:08:00,70.6,66.9,30.05,ENE,60,0.0,1.0,88,0.00,,---,0.09,VWS V13.01,2013-07-29 13:08:00,
2013-07-29 09:10:00,70.8,66.7,30.05,North,11,3.0,6.0,87,0.00,,---,0.09,VWS V13.01,2013-07-29 13:10:00,
2013-07-29 09:12:00,71.0,66.3,30.05,North,10,0.0,6.0,85,0.00,,---,0.09,VWS V13.01,2013-07-29 13:12:00,
2013-07-29 09:13:00,71.2,66.8,30.05,North,350,3.0,6.0,86,0.00,,---,0.09,VWS V13.01,2013-07-29 13:13:00,
2013-07-29 09:16:00,71.3,66.9,30.05,North,355,2.0,6.0,86,0.00,,---,0.09,VWS V13.01,2013-07-29 13:16:00,
2013-07-29 09:17:00,71.3,66.6,30.04,North,11,1.0,6.0,85,0.00,,---,0.09,VWS V13.01,2013-07-29 13:17:00,
2013-07-29 09:18:00,71.3,66.6,30.05,North,11,0.0,6.0,85,0.00,,---,0.09,VWS V13.01,2013-07-29 13:18:00,
2013-07-29 09:22:00,71.7,67.3,30.04,North,11,0.0,6.0,86,0.00,,---,0.09,VWS V13.01,2013-07-29 13:22:00,
2013-07-29 09:23:00,71.9,67.2,30.05,North,11,0.0,6.0,85,0.00,,---,0.09,VWS V13.01,2013-07-29 13:23:00,
2013-07-29 09:28:00,72.2,67.1,30.04,NE,34,0.0,9.0,84,0.00,,---,0.09,VWS V13.01,2013-07-29 13:28:00,
2013-07-29 09:33:00,72.0,66.6,30.04,NE,51,0.0,4.0,83,0.00,,---,0.09,VWS V13.01,2013-07-29 13:33:00,
2013-07-29 09:34:00,72.1,66.3,30.04,NE,51,0.0,4.0,82,0.00,,---,0.09,VWS V13.01,2013-07-29 13:34:00,
2013-07-29 09:35:00,72.2,66.8,30.04,NE,49,0.0,4.0,83,0.00,,---,0.09,VWS V13.01,2013-07-29 13:35:00,
2013-07-29 09:38:00,72.6,66.4,30.05,NNE,14,2.0,7.0,81,0.00,,---,0.09,VWS V13.01,2013-07-29 13:38:00,
2013-07-29 09:39:00,72.7,66.2,30.04,North,355,1.0,7.0,80,0.00,,---,0.09,VWS V13.01,2013-07-29 13:39:00,
2013-07-29 09:40:00,72.7,66.2,30.04,NE,48,8.0,9.0,80,0.00,,---,0.09,VWS V13.01,2013-07-29 13:40:00,
2013-07-29 09:43:00,72.9,65.3,30.05,North,360,0.0,12.0,77,0.00,,---,0.09,VWS V13.01,2013-07-29 13:43:00,
2013-07-29 09:44:00,72.8,65.2,30.05,NNE,13,4.0,12.0,77,0.00,,---,0.09,VWS V13.01,2013-07-29 13:44:00,
2013-07-29 09:45:00,72.8,65.9,30.05,NNW,348,11.0,14.0,79,0.00,,---,0.10,VWS V13.01,2013-07-29 13:45:00,
2013-07-29 09:49:00,73.2,65.2,30.05,NNW,348,0.0,14.0,76,0.01,,---,0.10,VWS V13.01,2013-07-29 13:49:00,
2013-07-29 09:50:00,73.3,64.5,30.05,NNE,17,5.0,14.0,74,0.01,,---,0.10,VWS V13.01,2013-07-29 13:50:00,
2013-07-29 09:54:00,73.6,65.6,30.05,North,355,0.0,14.0,76,0.01,,---,0.10,VWS V13.01,2013-07-29 13:54:00,
2013-07-29 09:55:00,73.7,64.9,30.05,North,355,0.0,14.0,74,0.01,,---,0.10,VWS V13.01,2013-07-29 13:55:00,
2013-07-29 09:57:00,73.9,65.9,30.05,North,355,0.0,14.0,76,0.01,,---,0.10,VWS V13.01,2013-07-29 13:57:00,
2013-07-29 10:00:00,74.1,64.9,30.05,ENE,63,2.0,14.0,73,0.01,,---,0.10,VWS V13.01,2013-07-29 14:00:00,
2013-07-29 10:01:00,74.1,66.1,30.05,ENE,65,3.0,14.0,76,0.01,,---,0.10,VWS V13.01,2013-07-29 14:01:00,
2013-07-29 10:03:00,74.0,65.6,30.05,ENE,65,3.0,4.0,75,0.01,,---,0.10,VWS V13.01,2013-07-29 14:03:00,
2013-07-29 10:05:00,73.9,64.7,30.05,North,360,5.0,12.0,73,0.01,,---,0.10,VWS V13.01,2013-07-29 14:05:00,
2013-07-29 10:06:00,74.0,64.8,30.05,NNW,345,1.0,12.0,73,0.01,,---,0.10,VWS V13.01,2013-07-29 14:06:00,
2013-07-29 10:08:00,74.2,64.2,30.06,North,5,1.0,12.0,71,0.01,,---,0.10,VWS V13.01,2013-07-29 14:08:00,
2013-07-29 10:10:00,74.2,65.0,30.06,ENE,64,2.0,12.0,73,0.01,,---,0.10,VWS V13.01,2013-07-29 14:10:00,
2013-07-29 10:12:00,74.2,64.6,30.06,North,360,4.0,12.0,72,0.01,,---,0.10,VWS V13.01,2013-07-29 14:12:00,
2013-07-29 10:13:00,74.2,63.4,30.06,North,355,0.0,12.0,69,0.01,,---,0.10,VWS V13.01,2013-07-29 14:13:00,
2013-07-29 10:15:00,74.4,64.0,30.06,North,355,5.0,12.0,70,0.01,,---,0.10,VWS V13.01,2013-07-29 14:15:00,
2013-07-29 10:16:00,74.4,64.0,30.06,North,355,5.0,12.0,70,0.01,,---,0.10,VWS V13.01,2013-07-29 14:16:00,
2013-07-29 10:17:00,74.6,64.6,30.06,NNW,348,3.0,12.0,71,0.01,,---,0.10,VWS V13.01,2013-07-29 14:17:00,
2013-07-29 10:18:00,74.6,63.8,30.06,NNE,28,0.0,12.0,69,0.01,,---,0.10,VWS V13.01,2013-07-29 14:18:00,
2013-07-29 10:21:00,74.6,65.0,30.06,North,349,3.0,12.0,72,0.01,,---,0.10,VWS V13.01,2013-07-29 14:21:00,
2013-07-29 10:22:00,74.8,64.8,30.06,East,83,4.0,12.0,71,0.01,,---,0.10,VWS V13.01,2013-07-29 14:22:00,
2013-07-29 10:24:00,74.7,64.7,30.06,NE,34,5.0,12.0,71,0.01,,---,0.10,VWS V13.01,2013-07-29 14:24:00,
2013-07-29 10:26:00,74.8,65.2,30.06,NE,54,4.0,12.0,72,0.01,,---,0.10,VWS V13.01,2013-07-29 14:26:00,
2013-07-29 10:27:00,74.8,65.2,30.06,ENE,60,1.0,12.0,72,0.01,,---,0.10,VWS V13.01,2013-07-29 14:27:00,
2013-07-29 10:29:00,75.0,65.0,30.06,North,355,0.0,12.0,71,0.01,,---,0.10,VWS V13.01,2013-07-29 14:29:00,
2013-07-29 10:32:00,75.5,65.4,30.06,ENE,63,3.0,4.0,71,0.01,,---,0.10,VWS V13.01,2013-07-29 14:32:00,
2013-07-29 10:33:00,75.7,66.0,30.06,ENE,63,0.0,4.0,72,0.01,,---,0.10,VWS V13.01,2013-07-29 14:33:00,
2013-07-29 10:35:00,75.8,66.1,30.06,NE,36,1.0,4.0,72,0.01,,---,0.10,VWS V13.01,2013-07-29 14:35:00,
2013-07-29 10:38:00,75.9,64.2,30.06,NNW,336,10.0,11.0,67,0.01,,---,0.10,VWS V13.01,2013-07-29 14:38:00,
2013-07-29 10:39:00,75.8,64.1,30.06,NW,325,3.0,11.0,67,0.01,,---,0.10,VWS V13.01,2013-07-29 14:39:00,
2013-07-29 10:41:00,75.7,64.0,30.06,ENE,59,0.0,11.0,67,0.01,,---,0.10,VWS V13.01,2013-07-29 14:41:00,
2013-07-29 10:43:00,75.4,63.7,30.06,North,349,4.0,11.0,67,0.01,,---,0.10,VWS V13.01,2013-07-29 14:43:00,
2013-07-29 10:44:00,75.4,63.3,30.06,ENE,72,2.0,11.0,66,0.01,,---,0.10,VWS V13.01,2013-07-29 14:44:00,
2013-07-29 10:46:00,75.2,64.3,30.06,NNW,348,6.0,11.0,69,0.01,,---,0.10,VWS V13.01,2013-07-29 14:46:00,
2013-07-29 10:49:00,75.4,64.1,30.06,NNE,21,0.0,13.0,68,0.01,,---,0.10,VWS V13.01,2013-07-29 14:49:00,
2013-07-29 10:51:00,75.1,64.2,30.06,NNE,22,0.0,13.0,69,0.01,,---,0.10,VWS V13.01,2013-07-29 14:51:00,
2013-07-29 10:52:00,75.1,64.2,30.06,NE,35,2.0,13.0,69,0.01,,---,0.10,VWS V13.01,2013-07-29 14:52:00,
2013-07-29 10:53:00,75.0,64.6,30.06,NE,46,5.0,13.0,70,0.01,,---,0.10,VWS V13.01,2013-07-29 14:53:00,
2013-07-29 10:54:00,75.0,64.6,30.07,NE,46,3.0,13.0,70,0.01,,---,0.10,VWS V13.01,2013-07-29 14:54:00,
2013-07-29 10:56:00,75.3,64.8,30.07,NNW,337,0.0,13.0,70,0.01,,---,0.10,VWS V13.01,2013-07-29 14:56:00,
2013-07-29 10:57:00,75.5,65.4,30.07,NNW,338,0.0,13.0,71,0.01,,---,0.10,VWS V13.01,2013-07-29 14:57:00,
2013-07-29 10:58:00,75.6,64.7,30.07,North,355,0.0,13.0,69,0.01,,---,0.10,VWS V13.01,2013-07-29 14:58:00,
2013-07-29 10:59:00,75.9,64.6,30.07,NNE,17,0.0,13.0,68,0.01,,---,0.10,VWS V13.01,2013-07-29 14:59:00,
2013-07-29 11:02:00,75.8,64.5,30.07,NNE,16,0.0,0.0,68,0.01,,---,0.10,VWS V13.01,2013-07-29 15:02:00,
2013-07-29 11:03:00,76.0,65.9,30.07,NNE,22,0.0,3.0,71,0.00,,---,0.10,VWS V13.01,2013-07-29 15:03:00,
2013-07-29 11:05:00,75.8,64.5,30.07,NNE,23,0.0,3.0,68,0.00,,---,0.10,VWS V13.01,2013-07-29 15:05:00,
2013-07-29 11:08:00,76.3,66.6,30.06,North,360,0.0,4.0,72,0.00,,---,0.10,VWS V13.01,2013-07-29 15:08:00,
2013-07-29 11:09:00,76.4,66.7,30.06,North,5,0.0,4.0,72,0.00,,---,0.10,VWS V13.01,2013-07-29 15:09:00,
2013-07-29 11:10:00,76.5,66.8,30.06,North,5,0.0,4.0,72,0.00,,---,0.10,VWS V13.01,2013-07-29 15:10:00,
2013-07-29 11:14:00,76.3,65.8,30.06,NE,54,1.0,9.0,70,0.00,,---,0.10,VWS V13.01,2013-07-29 15:14:00,
2013-07-29 11:15:00,76.5,67.2,30.06,NE,53,0.0,9.0,73,0.00,,---,0.10,VWS V13.01,2013-07-29 15:15:00,
2013-07-29 11:19:00,77.2,65.4,30.06,NNW,340,2.0,9.0,67,0.00,,---,0.10,VWS V13.01,2013-07-29 15:19:00,
2013-07-29 11:20:00,77.4,65.2,30.06,NNW,340,0.0,9.0,66,0.00,,---,0.10,VWS V13.01,2013-07-29 15:20:00,
2013-07-29 11:21:00,77.4,65.6,30.06,NNE,20,1.0,9.0,67,0.00,,---,0.10,VWS V13.01,2013-07-29 15:21:00,
2013-07-29 11:24:00,77.0,65.2,30.06,NE,44,0.0,10.0,67,0.00,,---,0.10,VWS V13.01,2013-07-29 15:24:00,
2013-07-29 11:25:00,76.6,64.8,30.06,ENE,71,2.0,10.0,67,0.00,,---,0.10,VWS V13.01,2013-07-29 15:25:00,
2013-07-29 11:26:00,76.5,64.7,30.06,ENE,71,1.0,10.0,67,0.00,,---,0.10,VWS V13.01,2013-07-29 15:26:00,
2013-07-29 11:29:00,76.0,64.3,30.06,East,79,2.0,10.0,67,0.00,,---,0.10,VWS V13.01,2013-07-29 15:29:00,
2013-07-29 11:31:00,76.2,64.4,30.06,NE,53,0.0,10.0,67,0.00,,---,0.10,VWS V13.01,2013-07-29 15:31:00,
2013-07-29 11:32:00,76.1,65.2,30.06,ENE,57,0.0,0.0,69,0.00,,---,0.10,VWS V13.01,2013-07-29 15:32:00,
2013-07-29 11:35:00,76.2,64.9,30.06,ENE,63,0.0,5.0,68,0.00,,---,0.10,VWS V13.01,2013-07-29 15:35:00,
2013-07-29 11:37:00,76.4,63.8,30.06,ENE,63,0.0,5.0,65,0.00,,---,0.10,VWS V13.01,2013-07-29 15:37:00,
2013-07-29 11:40:00,76.7,64.9,30.06,NE,43,0.0,7.0,67,0.00,,---,0.10,VWS V13.01,2013-07-29 15:40:00,
2013-07-29 11:42:00,77.1,65.7,30.07,East,81,1.0,7.0,68,0.00,,---,0.10,VWS V13.01,2013-07-29 15:42:00,
2013-07-29 11:43:00,77.0,63.0,30.07,East,81,0.0,7.0,62,0.00,,---,0.10,VWS V13.01,2013-07-29 15:43:00,
2013-07-29 11:45:00,77.0,63.0,30.07,East,80,0.0,7.0,62,0.00,,---,0.10,VWS V13.01,2013-07-29 15:45:00,
2013-07-29 11:48:00,77.4,65.2,30.07,ENE,59,3.0,7.0,66,0.00,,---,0.10,VWS V13.01,2013-07-29 15:48:00,
2013-07-29 11:49:00,77.6,64.9,30.07,ENE,61,0.0,7.0,65,0.00,,---,0.10,VWS V13.01,2013-07-29 15:49:00,
2013-07-29 11:50:00,77.5,64.4,30.07,ENE,61,1.0,7.0,64,0.00,,---,0.10,VWS V13.01,2013-07-29 15:50:00,
2013-07-29 11:53:00,77.6,64.5,30.07,ENE,61,0.0,7.0,64,0.00,,---,0.10,VWS V13.01,2013-07-29 15:53:00,
2013-07-29 11:54:00,77.5,64.4,30.07,ENE,61,4.0,7.0,64,0.00,,---,0.10,VWS V13.01,2013-07-29 15:54:00,
2013-07-29 11:55:00,77.3,65.1,30.07,ENE,62,3.0,7.0,66,0.00,,---,0.10,VWS V13.01,2013-07-29 15:55:00,
2013-07-29 11:59:00,77.5,65.3,30.07,ENE,60,0.0,7.0,66,0.00,,---,0.10,VWS V13.01,2013-07-29 15:59:00,
2013-07-29 12:00:00,77.7,65.4,30.06,ENE,60,0.0,7.0,66,0.00,,---,0.10,VWS V13.01,2013-07-29 16:00:00,
2013-07-29 12:04:00,78.2,64.1,30.06,NE,40,0.0,4.0,62,0.00,,---,0.10,VWS V13.01,2013-07-29 16:04:00,
2013-07-29 12:07:00,78.5,66.6,30.06,NNE,25,2.0,4.0,67,0.00,,---,0.10,VWS V13.01,2013-07-29 16:07:00,
2013-07-29 12:09:00,78.7,64.1,30.07,NNE,14,0.0,6.0,61,0.00,,---,0.10,VWS V13.01,2013-07-29 16:09:00,
2013-07-29 12:10:00,78.6,64.5,30.06,NNE,15,3.0,6.0,62,0.00,,---,0.10,VWS V13.01,2013-07-29 16:10:00,
2013-07-29 12:11:00,78.6,64.5,30.06,NNE,25,1.0,6.0,62,0.00,,---,0.10,VWS V13.01,2013-07-29 16:11:00,
2013-07-29 12:13:00,78.6,65.0,30.07,NNE,25,0.0,6.0,63,0.00,,---,0.10,VWS V13.01,2013-07-29 16:13:00,
2013-07-29 12:15:00,78.5,65.3,30.07,North,355,2.0,6.0,64,0.00,,---,0.10,VWS V13.01,2013-07-29 16:15:00,
2013-07-29 12:18:00,78.7,65.1,30.06,NNW,331,0.0,6.0,63,0.00,,---,0.10,VWS V13.01,2013-07-29 16:18:00,
2013-07-29 12:20:00,78.4,65.2,30.06,NNW,336,0.0,6.0,64,0.00,,---,0.10,VWS V13.01,2013-07-29 16:20:00,
2013-07-29 12:22:00,78.4,65.2,30.06,ENE,61,3.0,6.0,64,0.00,,---,0.10,VWS V13.01,2013-07-29 16:22:00,
2013-07-29 12:23:00,78.4,65.7,30.06,ENE,63,0.0,6.0,65,0.00,,---,0.10,VWS V13.01,2013-07-29 16:23:00,
2013-07-29 12:24:00,78.4,64.8,30.06,ENE,65,0.0,6.0,63,0.00,,---,0.10,VWS V13.01,2013-07-29 16:24:00,
2013-07-29 12:27:00,78.2,65.9,30.06,ENE,66,0.0,6.0,66,0.00,,---,0.10,VWS V13.01,2013-07-29 16:27:00,
2013-07-29 12:29:00,78.3,65.1,30.06,SSW,198,7.0,7.0,64,0.00,,---,0.10,VWS V13.01,2013-07-29 16:29:00,
2013-07-29 12:32:00,78.7,65.5,30.06,East,92,1.0,2.0,64,0.00,,---,0.10,VWS V13.01,2013-07-29 16:32:00,
2013-07-29 12:33:00,78.7,65.5,30.06,SE,142,0.0,2.0,64,0.00,,---,0.10,VWS V13.01,2013-07-29 16:33:00,
2013-07-29 12:35:00,78.7,66.0,30.06,ESE,119,1.0,4.0,65,0.00,,---,0.10,VWS V13.01,2013-07-29 16:35:00,
2013-07-29 12:38:00,79.6,65.4,30.06,NNW,348,1.0,5.0,62,0.00,,---,0.10,VWS V13.01,2013-07-29 16:38:00,
2013-07-29 12:40:00,79.6,65.4,30.06,NNW,348,0.0,5.0,62,0.00,,---,0.10,VWS V13.01,2013-07-29 16:40:00,
2013-07-29 12:43:00,79.3,65.2,30.06,NE,38,1.0,6.0,62,0.00,,---,0.10,VWS V13.01,2013-07-29 16:43:00,
2013-07-29 12:44:00,79.1,65.9,30.06,NE,38,1.0,6.0,64,0.00,,---,0.10,VWS V13.01,2013-07-29 16:44:00,
2013-07-29 12:45:00,79.0,66.2,30.06,ENE,59,0.0,6.0,65,0.00,,---,0.10,VWS V13.01,2013-07-29 16:45:00,
2013-07-29 12:48:00,78.8,66.1,30.06,NE,46,0.0,6.0,65,0.00,,---,0.10,VWS V13.01,2013-07-29 16:48:00,
2013-07-29 12:49:00,78.8,64.7,30.06,NE,45,0.0,6.0,62,0.00,,---,0.10,VWS V13.01,2013-07-29 16:49:00,
2013-07-29 12:53:00,79.1,65.9,30.06,NNE,29,0.0,6.0,64,0.00,,---,0.10,VWS V13.01,2013-07-29 16:53:00,
2013-07-29 12:54:00,79.2,66.4,30.06,NNE,29,0.0,6.0,65,0.00,,---,0.10,VWS V13.01,2013-07-29 16:54:00,
2013-07-29 12:55:00,79.4,65.7,30.06,NNE,32,0.0,6.0,63,0.00,,---,0.10,VWS V13.01,2013-07-29 16:55:00,
2013-07-29 12:58:00,80.0,66.7,30.06,NNE,24,4.0,7.0,64,0.00,,---,0.10,VWS V13.01,2013-07-29 16:58:00,
2013-07-29 12:59:00,80.0,65.8,30.06,NNE,22,0.0,7.0,62,0.00,,---,0.10,VWS V13.01,2013-07-29 16:59:00,
2013-07-29 13:00:00,80.0,66.3,30.06,NE,34,0.0,7.0,63,0.00,,---,0.10,VWS V13.01,2013-07-29 17:00:00,
2013-07-29 13:04:00,79.4,66.6,30.06,NE,52,5.0,5.0,65,0.00,,---,0.10,VWS V13.01,2013-07-29 17:04:00,
2013-07-29 13:05:00,79.4,66.6,30.06,NE,52,5.0,5.0,65,0.00,,---,0.10,VWS V13.01,2013-07-29 17:05:00,
2013-07-29 13:06:00,79.4,66.2,30.06,ENE,58,2.0,5.0,64,0.00,,---,0.10,VWS V13.01,2013-07-29 17:06:00,
2013-07-29 13:09:00,80.0,65.8,30.06,ENE,59,0.0,5.0,62,0.00,,---,0.10,VWS V13.01,2013-07-29 17:09:00,
2013-07-29 13:10:00,80.0,65.8,30.06,ENE,59,0.0,5.0,62,0.00,,---,0.10,VWS V13.01,2013-07-29 17:10:00,
2013-07-29 13:11:00,79.9,67.1,30.06,ENE,59,0.0,5.0,65,0.00,,---,0.10,VWS V13.01,2013-07-29 17:11:00,
2013-07-29 13:15:00,79.8,66.1,30.06,ENE,78,0.0,5.0,63,0.00,,---,0.10,VWS V13.01,2013-07-29 17:15:00,
2013-07-29 13:16:00,79.8,67.0,30.06,ENE,78,0.0,5.0,65,0.00,,---,0.10,VWS V13.01,2013-07-29 17:16:00,
2013-07-29 13:17:00,79.8,66.1,30.06,East,88,1.0,5.0,63,0.00,,---,0.10,VWS V13.01,2013-07-29 17:17:00,
2013-07-29 13:20:00,80.2,68.3,30.06,ESE,108,0.0,5.0,67,0.00,,---,0.10,VWS V13.01,2013-07-29 17:20:00,
2013-07-29 13:22:00,80.5,68.5,30.06,ESE,108,0.0,5.0,67,0.00,,---,0.10,VWS V13.01,2013-07-29 17:22:00,
2013-07-29 13:25:00,80.9,67.6,30.06,ESE,108,0.0,5.0,64,0.00,,---,0.10,VWS V13.01,2013-07-29 17:25:00,
2013-07-29 13:27:00,80.8,66.6,30.06,ESE,108,0.0,5.0,62,0.00,,---,0.10,VWS V13.01,2013-07-29 17:27:00,
2013-07-29 13:30:00,80.5,68.1,30.06,NNW,335,0.0,6.0,66,0.00,,---,0.10,VWS V13.01,2013-07-29 17:30:00,
2013-07-29 13:32:00,79.7,66.9,30.06,NNW,334,0.0,0.0,65,0.00,,---,0.10,VWS V13.01,2013-07-29 17:32:00,
2013-07-29 13:34:00,79.6,67.7,30.06,NNW,338,0.0,3.0,67,0.00,,---,0.10,VWS V13.01,2013-07-29 17:34:00,
2013-07-29 13:35:00,79.8,66.1,30.05,NNW,338,0.0,3.0,63,0.00,,---,0.10,VWS V13.01,2013-07-29 17:35:00,
2013-07-29 13:37:00,80.2,67.8,30.06,NNW,346,2.0,6.0,66,0.00,,---,0.10,VWS V13.01,2013-07-29 17:37:00,
2013-07-29 13:38:00,80.6,66.4,30.06,NNW,345,1.0,6.0,62,0.00,,---,0.10,VWS V13.01,2013-07-29 17:38:00,
2013-07-29 13:40:00,81.2,69.2,30.06,NNW,345,0.0,6.0,67,0.00,,---,0.10,VWS V13.01,2013-07-29 17:40:00,
2013-07-29 13:43:00,80.7,65.5,30.06,NNW,345,0.0,6.0,60,0.00,,---,0.10,VWS V13.01,2013-07-29 17:43:00,
2013-07-29 13:44:00,80.8,65.6,30.06,NNW,345,0.0,6.0,60,0.00,,---,0.10,VWS V13.01,2013-07-29 17:44:00,
2013-07-29 13:45:00,80.9,66.2,30.06,NW,321,1.0,6.0,61,0.00,,---,0.10,VWS V13.01,2013-07-29 17:45:00,
2013-07-29 13:49:00,80.8,65.2,30.06,NW,304,0.0,6.0,59,0.00,,---,0.10,VWS V13.01,2013-07-29 17:49:00,
2013-07-29 13:50:00,80.7,65.5,30.06,WNW,283,3.0,6.0,60,0.00,,---,0.10,VWS V13.01,2013-07-29 17:50:00,
2013-07-29 13:51:00,80.8,66.6,30.06,SW,230,0.0,6.0,62,0.00,,---,0.10,VWS V13.01,2013-07-29 17:51:00,
2013-07-29 13:54:00,80.8,66.1,30.05,SW,230,0.0,6.0,61,0.00,,---,0.10,VWS V13.01,2013-07-29 17:54:00,
2013-07-29 13:55:00,80.8,66.1,30.06,SW,230,0.0,6.0,61,0.00,,---,0.10,VWS V13.01,2013-07-29 17:55:00,
2013-07-29 13:56:00,81.0,67.7,30.06,SW,230,0.0,6.0,64,0.00,,---,0.10,VWS V13.01,2013-07-29 17:56:00,
2013-07-29 13:59:00,80.9,67.6,30.05,ENE,68,1.0,6.0,64,0.00,,---,0.10,VWS V13.01,2013-07-29 17:59:00,
2013-07-29 14:00:00,80.8,67.5,30.05,ENE,68,2.0,6.0,64,0.00,,---,0.10,VWS V13.01,2013-07-29 18:00:00,
2013-07-29 14:02:00,81.0,66.3,30.05,NW,311,3.0,3.0,61,0.00,,---,0.10,VWS V13.01,2013-07-29 18:02:00,
2013-07-29 14:04:00,80.3,65.2,30.05,WNW,303,0.0,4.0,60,0.00,,---,0.10,VWS V13.01,2013-07-29 18:04:00,
2013-07-29 14:06:00,80.0,64.9,30.05,WNW,303,0.0,4.0,60,0.00,,---,0.10,VWS V13.01,2013-07-29 18:06:00,
2013-07-29 14:07:00,79.8,65.2,30.05,WNW,303,0.0,4.0,61,0.00,,---,0.10,VWS V13.01,2013-07-29 18:07:00,
2013-07-29 14:11:00,80.0,65.8,30.05,NW,306,0.0,4.0,62,0.00,,---,0.10,VWS V13.01,2013-07-29 18:11:00,
2013-07-29 14:12:00,80.3,67.0,30.05,NW,306,0.0,4.0,64,0.00,,---,0.10,VWS V13.01,2013-07-29 18:12:00,
2013-07-29 14:17:00,81.2,65.0,30.05,North,5,0.0,4.0,58,0.00,,---,0.10,VWS V13.01,2013-07-29 18:17:00,
2013-07-29 14:22:00,81.6,67.3,30.05,NNE,19,0.0,4.0,62,0.00,,---,0.10,VWS V13.01,2013-07-29 18:22:00,
2013-07-29 14:23:00,81.8,68.0,30.05,NNE,19,0.0,4.0,63,0.00,,---,0.10,VWS V13.01,2013-07-29 18:23:00,
2013-07-29 14:27:00,82.7,66.9,30.05,NNE,15,0.0,5.0,59,0.00,,---,0.10,VWS V13.01,2013-07-29 18:27:00,
2013-07-29 14:28:00,82.7,69.3,30.05,NNE,14,0.0,5.0,64,0.00,,---,0.10,VWS V13.01,2013-07-29 18:28:00,
2013-07-29 14:29:00,82.7,66.4,30.05,North,9,0.0,5.0,58,0.00,,---,0.10,VWS V13.01,2013-07-29 18:29:00,
2013-07-29 14:32:00,82.7,65.4,30.04,North,5,0.0,0.0,56,0.00,,---,0.10,VWS V13.01,2013-07-29 18:32:00,
2013-07-29 14:33:00,82.5,67.7,30.05,North,5,1.0,1.0,61,0.00,,---,0.10,VWS V13.01,2013-07-29 18:33:00,
2013-07-29 14:35:00,82.5,66.7,30.05,North,360,4.0,4.0,59,0.00,,---,0.10,VWS V13.01,2013-07-29 18:35:00,
2013-07-29 14:38:00,83.0,67.7,30.04,North,360,1.0,4.0,60,0.00,,---,0.10,VWS V13.01,2013-07-29 18:38:00,
2013-07-29 14:41:00,82.5,65.2,30.04,North,360,0.0,4.0,56,0.00,,---,0.10,VWS V13.01,2013-07-29 18:41:00,
2013-07-29 14:43:00,82.2,64.4,30.04,North,360,0.0,4.0,55,0.00,,---,0.10,VWS V13.01,2013-07-29 18:43:00,
2013-07-29 14:46:00,82.1,65.9,30.04,North,360,0.0,6.0,58,0.00,,---,0.10,VWS V13.01,2013-07-29 18:46:00,
2013-07-29 14:48:00,82.2,65.5,30.04,North,360,0.0,6.0,57,0.00,,---,0.10,VWS V13.01,2013-07-29 18:48:00,
2013-07-29 14:49:00,82.2,66.5,30.04,North,360,0.0,6.0,59,0.00,,---,0.10,VWS V13.01,2013-07-29 18:49:00,
2013-07-29 14:50:00,82.2,67.9,30.04,North,360,0.0,6.0,62,0.00,,---,0.10,VWS V13.01,2013-07-29 18:50:00,
2013-07-29 14:51:00,82.2,66.5,30.04,North,360,0.0,6.0,59,0.00,,---,0.10,VWS V13.01,2013-07-29 18:51:00,
2013-07-29 14:54:00,82.3,67.0,30.03,North,360,0.0,6.0,60,0.00,,---,0.10,VWS V13.01,2013-07-29 18:54:00,
2013-07-29 14:55:00,82.6,67.8,30.03,North,360,0.0,6.0,61,0.00,,---,0.10,VWS V13.01,2013-07-29 18:55:00,
2013-07-29 14:57:00,82.9,66.1,30.03,North,360,5.0,6.0,57,0.00,,---,0.10,VWS V13.01,2013-07-29 18:57:00,
2013-07-29 14:59:00,82.7,65.9,30.03,North,360,1.0,6.0,57,0.00,,---,0.10,VWS V13.01,2013-07-29 18:59:00,
2013-07-29 15:00:00,82.5,67.7,30.03,North,5,6.0,7.0,61,0.00,,---,0.10,VWS V13.01,2013-07-29 19:00:00,
2013-07-29 15:01:00,82.6,67.8,30.03,North,360,3.0,7.0,61,0.00,,---,0.10,VWS V13.01,2013-07-29 19:01:00,
2013-07-29 15:02:00,82.8,68.5,30.03,North,360,1.0,5.0,62,0.00,,---,0.10,VWS V13.01,2013-07-29 19:02:00,
2013-07-29 15:05:00,83.0,67.7,30.03,North,360,0.0,5.0,60,0.00,,---,0.10,VWS V13.01,2013-07-29 19:05:00,
2013-07-29 15:06:00,83.2,67.9,30.03,North,360,1.0,5.0,60,0.00,,---,0.10,VWS V13.01,2013-07-29 19:06:00,
2013-07-29 15:07:00,83.3,66.5,30.03,North,360,0.0,5.0,57,0.00,,---,0.10,VWS V13.01,2013-07-29 19:07:00,
2013-07-29 15:10:00,83.2,66.9,30.03,North,360,0.0,5.0,58,0.00,,---,0.10,VWS V13.01,2013-07-29 19:10:00,
2013-07-29 15:12:00,83.4,68.1,30.02,NNW,337,5.0,8.0,60,0.00,,---,0.10,VWS V13.01,2013-07-29 19:12:00,
2013-07-29 15:14:00,83.7,66.9,30.02,NNW,336,3.0,8.0,57,0.00,,---,0.10,VWS V13.01,2013-07-29 19:14:00,
2013-07-29 15:16:00,83.5,66.7,30.02,NNW,336,0.0,8.0,57,0.00,,---,0.10,VWS V13.01,2013-07-29 19:16:00,
2013-07-29 15:18:00,83.3,65.5,30.02,NNW,336,0.0,8.0,55,0.00,,---,0.10,VWS V13.01,2013-07-29 19:18:00,
2013-07-29 15:19:00,83.0,66.2,30.02,NNW,334,0.0,8.0,57,0.00,,---,0.10,VWS V13.01,2013-07-29 19:19:00,
2013-07-29 15:20:00,82.9,67.6,30.02,NNW,334,0.0,8.0,60,0.00,,---,0.10,VWS V13.01,2013-07-29 19:20:00,
2013-07-29 15:22:00,82.8,67.5,30.02,NNW,334,2.0,8.0,60,0.00,,---,0.10,VWS V13.01,2013-07-29 19:22:00,
2013-07-29 15:23:00,83.0,66.2,30.02,NNW,348,6.0,8.0,57,0.00,,---,0.10,VWS V13.01,2013-07-29 19:23:00,
2013-07-29 15:24:00,83.1,68.3,30.02,NNW,345,3.0,8.0,61,0.00,,---,0.10,VWS V13.01,2013-07-29 19:24:00,
2013-07-29 15:25:00,83.2,66.9,30.02,NNW,344,2.0,8.0,58,0.00,,---,0.10,VWS V13.01,2013-07-29 19:25:00,
2013-07-29 15:28:00,83.3,67.0,30.02,NNW,342,1.0,10.0,58,0.00,,---,0.10,VWS V13.01,2013-07-29 19:28:00,
2013-07-29 15:29:00,83.2,66.4,30.02,NNW,342,4.0,10.0,57,0.00,,---,0.10,VWS V13.01,2013-07-29 19:29:00,
2013-07-29 15:30:00,83.2,67.4,30.02,NNW,346,0.0,10.0,59,0.00,,---,0.10,VWS V13.01,2013-07-29 19:30:00,
2013-07-29 15:33:00,82.9,66.6,30.01,NNE,14,3.0,4.0,58,0.00,,---,0.10,VWS V13.01,2013-07-29 19:33:00,
2013-07-29 15:34:00,83.1,66.3,30.02,North,360,1.0,5.0,57,0.00,,---,0.10,VWS V13.01,2013-07-29 19:34:00,
2013-07-29 15:35:00,83.2,66.4,30.02,North,5,0.0,5.0,57,0.00,,---,0.10,VWS V13.01,2013-07-29 19:35:00,
2013-07-29 15:40:00,82.3,67.0,30.02,NNW,331,1.0,5.0,60,0.00,,---,0.10,VWS V13.01,2013-07-29 19:40:00,
2013-07-29 15:41:00,81.8,65.6,30.02,NNW,330,0.0,5.0,58,0.00,,---,0.10,VWS V13.01,2013-07-29 19:41:00,
2013-07-29 15:45:00,81.9,67.6,30.01,NNW,330,0.0,5.0,62,0.00,,---,0.10,VWS V13.01,2013-07-29 19:45:00,
2013-07-29 15:47:00,82.1,69.6,30.01,NNW,330,0.0,5.0,66,0.00,,---,0.10,VWS V13.01,2013-07-29 19:47:00,
2013-07-29 15:50:00,82.2,66.5,30.01,NNW,330,0.0,5.0,59,0.00,,---,0.10,VWS V13.01,2013-07-29 19:50:00,
2013-07-29 15:52:00,82.4,66.2,30.01,NNW,330,0.0,5.0,58,0.00,,---,0.10,VWS V13.01,2013-07-29 19:52:00,
2013-07-29 15:56:00,82.4,68.6,30.01,NNW,330,0.0,5.0,63,0.00,,---,0.10,VWS V13.01,2013-07-29 19:56:00,
2013-07-29 15:57:00,82.2,65.0,30.01,NNW,330,0.0,5.0,56,0.00,,---,0.10,VWS V13.01,2013-07-29 19:57:00,
2013-07-29 15:58:00,82.1,65.9,30.01,NNW,330,0.0,5.0,58,0.00,,---,0.10,VWS V13.01,2013-07-29 19:58:00,
2013-07-29 16:01:00,81.4,66.7,30.01,NNW,347,3.0,5.0,61,0.00,,---,0.10,VWS V13.01,2013-07-29 20:01:00,
2013-07-29 16:03:00,81.3,67.1,30.01,NNW,339,2.0,5.0,62,0.00,,---,0.10,VWS V13.01,2013-07-29 20:03:00,
2013-07-29 16:04:00,81.4,67.1,30.01,NNW,342,2.0,5.0,62,0.00,,---,0.10,VWS V13.01,2013-07-29 20:04:00,
2013-07-29 16:05:00,81.6,67.3,30.01,NNW,331,3.0,5.0,62,0.00,,---,0.10,VWS V13.01,2013-07-29 20:05:00,
2013-07-29 16:07:00,82.0,67.2,30.01,NW,323,2.0,6.0,61,0.00,,---,0.10,VWS V13.01,2013-07-29 20:07:00,
2013-07-29 16:09:00,82.6,67.3,30.01,NW,323,0.0,6.0,60,0.00,,---,0.10,VWS V13.01,2013-07-29 20:09:00,
2013-07-29 16:10:00,82.5,65.8,30.01,NW,324,0.0,6.0,57,0.00,,---,0.10,VWS V13.01,2013-07-29 20:10:00,
2013-07-29 16:12:00,82.1,66.4,30.01,NW,322,0.0,6.0,59,0.00,,---,0.10,VWS V13.01,2013-07-29 20:12:00,
2013-07-29 16:15:00,81.6,66.4,30.01,NW,315,0.0,6.0,60,0.00,,---,0.10,VWS V13.01,2013-07-29 20:15:00,
2013-07-29 16:16:00,81.6,66.4,30.01,NW,315,0.0,6.0,60,0.00,,---,0.10,VWS V13.01,2013-07-29 20:16:00,
2013-07-29 16:17:00,82.0,66.3,30.01,NW,315,0.0,6.0,59,0.00,,---,0.10,VWS V13.01,2013-07-29 20:17:00,
2013-07-29 16:18:00,82.1,66.4,30.01,NW,315,0.0,6.0,59,0.00,,---,0.10,VWS V13.01,2013-07-29 20:18:00,
2013-07-29 16:21:00,81.7,66.9,30.01,NW,315,0.0,6.0,61,0.00,,---,0.10,VWS V13.01,2013-07-29 20:21:00,
2013-07-29 16:23:00,81.5,66.8,30.01,NW,315,0.0,6.0,61,0.00,,---,0.10,VWS V13.01,2013-07-29 20:23:00,
2013-07-29 16:25:00,81.3,65.6,30.01,NW,322,0.0,6.0,59,0.00,,---,0.10,VWS V13.01,2013-07-29 20:25:00,
2013-07-29 16:27:00,81.0,65.3,30.01,NW,322,0.0,6.0,59,0.00,,---,0.10,VWS V13.01,2013-07-29 20:27:00,
2013-07-29 16:28:00,80.9,64.8,30.01,NW,322,0.0,6.0,58,0.00,,---,0.10,VWS V13.01,2013-07-29 20:28:00,
2013-07-29 16:30:00,80.6,67.3,30.02,NW,322,0.0,6.0,64,0.00,,---,0.10,VWS V13.01,2013-07-29 20:30:00,
2013-07-29 16:32:00,81.1,66.9,30.02,NW,322,0.0,2.0,62,0.00,,---,0.10,VWS V13.01,2013-07-29 20:32:00,
2013-07-29 16:33:00,81.1,68.2,30.02,NW,322,0.0,2.0,65,0.00,,---,0.10,VWS V13.01,2013-07-29 20:33:00,
2013-07-29 16:35:00,81.1,66.9,30.02,NW,322,0.0,2.0,62,0.00,,---,0.10,VWS V13.01,2013-07-29 20:35:00,
2013-07-29 16:38:00,81.4,65.7,30.02,NW,322,0.0,3.0,59,0.00,,---,0.10,VWS V13.01,2013-07-29 20:38:00,
2013-07-29 16:39:00,81.5,65.8,30.02,NW,321,1.0,3.0,59,0.00,,---,0.10,VWS V13.01,2013-07-29 20:39:00,
2013-07-29 16:41:00,81.9,66.2,30.02,NW,321,3.0,3.0,59,0.00,,---,0.10,VWS V13.01,2013-07-29 20:41:00,
2013-07-29 16:44:00,82.4,67.6,30.02,NNW,338,3.0,5.0,61,0.00,,---,0.10,VWS V13.01,2013-07-29 20:44:00,
2013-07-29 16:46:00,82.3,67.0,30.02,NNW,339,0.0,5.0,60,0.00,,---,0.10,VWS V13.01,2013-07-29 20:46:00,
2013-07-29 16:49:00,82.4,67.6,30.02,NNW,338,0.0,5.0,61,0.00,,---,0.10,VWS V13.01,2013-07-29 20:49:00,
2013-07-29 16:50:00,82.4,68.1,30.02,NNW,339,0.0,5.0,62,0.00,,---,0.10,VWS V13.01,2013-07-29 20:50:00,
2013-07-29 16:51:00,82.4,67.6,30.02,NNW,338,0.0,5.0,61,0.00,,---,0.10,VWS V13.01,2013-07-29 20:51:00,
2013-07-29 16:54:00,82.5,67.2,30.02,NNW,333,2.0,5.0,60,0.00,,---,0.10,VWS V13.01,2013-07-29 20:54:00,
2013-07-29 16:55:00,82.6,67.8,30.02,NNW,333,0.0,5.0,61,0.00,,---,0.10,VWS V13.01,2013-07-29 20:55:00,
2013-07-29 16:58:00,82.8,66.5,30.02,WSW,251,0.0,5.0,58,0.00,,---,0.10,VWS V13.01,2013-07-29 20:58:00,
2013-07-29 16:59:00,82.9,67.1,30.02,WSW,250,2.0,5.0,59,0.00,,---,0.10,VWS V13.01,2013-07-29 20:59:00,
2013-07-29 17:01:00,83.0,67.2,30.02,West,264,2.0,5.0,59,0.00,,---,0.10,VWS V13.01,2013-07-29 21:01:00,
2013-07-29 17:02:00,83.0,67.2,30.02,West,264,2.0,3.0,59,0.00,,---,0.10,VWS V13.01,2013-07-29 21:02:00,
2013-07-29 17:03:00,83.0,67.2,30.02,West,264,1.0,3.0,59,0.00,,---,0.10,VWS V13.01,2013-07-29 21:03:00,
2013-07-29 17:05:00,82.8,63.9,30.02,West,264,0.0,3.0,53,0.00,,---,0.10,VWS V13.01,2013-07-29 21:05:00,
2013-07-29 17:07:00,82.6,65.3,30.02,West,264,0.0,3.0,56,0.00,,---,0.10,VWS V13.01,2013-07-29 21:07:00,
2013-07-29 17:08:00,82.4,64.6,30.03,West,264,0.0,3.0,55,0.00,,---,0.10,VWS V13.01,2013-07-29 21:08:00,
2013-07-29 17:11:00,82.3,66.6,30.02,West,264,3.0,3.0,59,0.00,,---,0.10,VWS V13.01,2013-07-29 21:11:00,
2013-07-29 17:13:00,82.4,67.1,30.03,WNW,286,1.0,5.0,60,0.00,,---,0.10,VWS V13.01,2013-07-29 21:13:00,
2013-07-29 17:14:00,82.5,67.7,30.03,WNW,286,0.0,5.0,61,0.00,,---,0.10,VWS V13.01,2013-07-29 21:14:00,
2013-07-29 17:16:00,82.4,67.1,30.03,WNW,295,0.0,5.0,60,0.00,,---,0.10,VWS V13.01,2013-07-29 21:16:00,
2013-07-29 17:18:00,82.2,66.5,30.03,WNW,295,0.0,5.0,59,0.00,,---,0.10,VWS V13.01,2013-07-29 21:18:00,
2013-07-29 17:19:00,82.2,66.5,30.03,WNW,295,0.0,5.0,59,0.00,,---,0.10,VWS V13.01,2013-07-29 21:19:00,
2013-07-29 17:21:00,82.2,66.9,30.03,WNW,302,0.0,5.0,60,0.00,,---,0.10,VWS V13.01,2013-07-29 21:21:00,
2013-07-29 17:23:00,82.1,67.3,30.03,NW,305,0.0,5.0,61,0.00,,---,0.10,VWS V13.01,2013-07-29 21:23:00,
2013-07-29 17:24:00,82.1,67.3,30.03,NW,305,0.0,5.0,61,0.00,,---,0.10,VWS V13.01,2013-07-29 21:24:00,
2013-07-29 17:25:00,82.1,69.2,30.03,NW,304,0.0,5.0,65,0.00,,---,0.10,VWS V13.01,2013-07-29 21:25:00,
2013-07-29 17:27:00,82.0,67.7,30.03,NW,304,0.0,5.0,62,0.00,,---,0.10,VWS V13.01,2013-07-29 21:27:00,
2013-07-29 17:29:00,82.0,67.2,30.03,NW,305,0.0,5.0,61,0.00,,---,0.10,VWS V13.01,2013-07-29 21:29:00,
2013-07-29 17:30:00,82.0,64.8,30.03,NW,305,0.0,5.0,56,0.00,,---,0.10,VWS V13.01,2013-07-29 21:30:00,
2013-07-29 17:32:00,82.0,65.3,30.03,NW,305,0.0,1.0,57,0.00,,---,0.10,VWS V13.01,2013-07-29 21:32:00,
2013-07-29 17:34:00,81.8,66.1,30.03,NW,305,0.0,1.0,59,0.00,,---,0.10,VWS V13.01,2013-07-29 21:34:00,
2013-07-29 17:36:00,81.8,66.6,30.03,NW,304,0.0,1.0,60,0.00,,---,0.10,VWS V13.01,2013-07-29 21:36:00,
2013-07-29 17:38:00,81.8,67.1,30.03,NW,305,3.0,3.0,61,0.00,,---,0.10,VWS V13.01,2013-07-29 21:38:00,
2013-07-29 17:40:00,81.7,66.0,30.03,NW,304,1.0,3.0,59,0.00,,---,0.10,VWS V13.01,2013-07-29 21:40:00,
2013-07-29 17:42:00,81.9,65.2,30.03,NW,309,0.0,3.0,57,0.00,,---,0.10,VWS V13.01,2013-07-29 21:42:00,
2013-07-29 17:45:00,82.0,65.8,30.03,NW,309,0.0,3.0,58,0.00,,---,0.10,VWS V13.01,2013-07-29 21:45:00,
2013-07-29 17:46:00,82.0,65.8,30.03,NW,309,0.0,3.0,58,0.00,,---,0.10,VWS V13.01,2013-07-29 21:46:00,
2013-07-29 17:47:00,82.0,64.8,30.03,NW,308,4.0,4.0,56,0.00,,---,0.10,VWS V13.01,2013-07-29 21:47:00,
2013-07-29 17:50:00,81.9,65.2,30.03,NW,324,3.0,5.0,57,0.00,,---,0.10,VWS V13.01,2013-07-29 21:50:00,
2013-07-29 17:51:00,82.0,64.3,30.03,NW,324,1.0,5.0,55,0.00,,---,0.10,VWS V13.01,2013-07-29 21:51:00,
2013-07-29 17:52:00,82.1,65.4,30.03,NW,324,0.0,5.0,57,0.00,,---,0.10,VWS V13.01,2013-07-29 21:52:00,
2013-07-29 17:55:00,82.1,64.9,30.03,NNW,337,4.0,7.0,56,0.00,,---,0.10,VWS V13.01,2013-07-29 21:55:00,
2013-07-29 17:57:00,82.1,64.9,30.03,NNW,331,4.0,7.0,56,0.00,,---,0.10,VWS V13.01,2013-07-29 21:57:00,
2013-07-29 18:00:00,82.0,63.7,30.03,NNW,340,5.0,7.0,54,0.00,,---,0.10,VWS V13.01,2013-07-29 22:00:00,
2013-07-29 18:02:00,82.0,64.8,30.03,NNW,340,0.0,0.0,56,0.00,,---,0.10,VWS V13.01,2013-07-29 22:02:00,
2013-07-29 18:06:00,81.7,64.0,30.03,NNW,331,0.0,5.0,55,0.00,,---,0.10,VWS V13.01,2013-07-29 22:06:00,
2013-07-29 18:08:00,81.6,63.9,30.03,NNW,331,0.0,5.0,55,0.00,,---,0.10,VWS V13.01,2013-07-29 22:08:00,
2013-07-29 18:10:00,81.4,63.7,30.03,NNW,331,0.0,5.0,55,0.00,,---,0.10,VWS V13.01,2013-07-29 22:10:00,
2013-07-29 18:11:00,81.4,63.7,30.03,NNW,331,0.0,5.0,55,0.00,,---,0.10,VWS V13.01,2013-07-29 22:11:00,
2013-07-29 18:13:00,81.2,64.5,30.03,NNW,331,0.0,5.0,57,0.00,,---,0.10,VWS V13.01,2013-07-29 22:13:00,
2013-07-29 18:14:00,81.2,64.5,30.03,NNW,331,0.0,5.0,57,0.00,,---,0.10,VWS V13.01,2013-07-29 22:14:00,
2013-07-29 18:15:00,81.0,65.3,30.03,NNW,331,0.0,5.0,59,0.00,,---,0.10,VWS V13.01,2013-07-29 22:15:00,
2013-07-29 18:16:00,80.9,64.2,30.03,NNW,331,0.0,5.0,57,0.00,,---,0.10,VWS V13.01,2013-07-29 22:16:00,
2013-07-29 18:18:00,80.8,66.1,30.03,NNW,330,0.0,5.0,61,0.00,,---,0.10,VWS V13.01,2013-07-29 22:18:00,
2013-07-29 18:20:00,80.6,65.9,30.03,NNW,331,0.0,5.0,61,0.00,,---,0.10,VWS V13.01,2013-07-29 22:20:00,
2013-07-29 18:21:00,80.5,63.4,30.03,NNW,330,0.0,5.0,56,0.00,,---,0.10,VWS V13.01,2013-07-29 22:21:00,
2013-07-29 18:24:00,80.7,64.1,30.03,NNW,331,0.0,5.0,57,0.00,,---,0.10,VWS V13.01,2013-07-29 22:24:00,
2013-07-29 18:26:00,80.7,64.1,30.03,NNW,330,0.0,5.0,57,0.00,,---,0.10,VWS V13.01,2013-07-29 22:26:00,
2013-07-29 18:27:00,80.8,63.7,30.03,NNW,331,0.0,5.0,56,0.00,,---,0.10,VWS V13.01,2013-07-29 22:27:00,
2013-07-29 18:29:00,80.6,63.5,30.03,NNW,330,0.0,5.0,56,0.00,,---,0.10,VWS V13.01,2013-07-29 22:29:00,
2013-07-29 18:32:00,80.7,64.1,30.03,NNW,331,0.0,0.0,57,0.00,,---,0.10,VWS V13.01,2013-07-29 22:32:00,
2013-07-29 18:34:00,80.9,63.2,30.03,NNW,331,0.0,0.0,55,0.00,,---,0.10,VWS V13.01,2013-07-29 22:34:00,
2013-07-29 18:37:00,80.7,64.1,30.03,NNW,331,0.0,0.0,57,0.00,,---,0.10,VWS V13.01,2013-07-29 22:37:00,
2013-07-29 18:38:00,80.6,64.5,30.03,NNW,331,0.0,0.0,58,0.00,,---,0.10,VWS V13.01,2013-07-29 22:38:00,
2013-07-29 18:39:00,80.6,65.0,30.03,NNW,330,0.0,0.0,59,0.00,,---,0.10,VWS V13.01,2013-07-29 22:39:00,
2013-07-29 18:40:00,80.6,63.5,30.03,NNW,330,0.0,0.0,56,0.00,,---,0.10,VWS V13.01,2013-07-29 22:40:00,
2013-07-29 18:43:00,80.7,63.0,30.03,NNW,331,0.0,0.0,55,0.00,,---,0.10,VWS V13.01,2013-07-29 22:43:00,
2013-07-29 18:44:00,80.8,64.2,30.03,NNW,331,0.0,0.0,57,0.00,,---,0.10,VWS V13.01,2013-07-29 22:44:00,
2013-07-29 18:46:00,80.6,64.5,30.04,NNW,331,0.0,0.0,58,0.00,,---,0.10,VWS V13.01,2013-07-29 22:46:00,
2013-07-29 18:48:00,80.5,64.9,30.03,NNW,331,0.0,1.0,59,0.00,,---,0.10,VWS V13.01,2013-07-29 22:48:00,
2013-07-29 18:49:00,80.4,65.3,30.03,NNW,331,0.0,1.0,60,0.00,,---,0.10,VWS V13.01,2013-07-29 22:49:00,
2013-07-29 18:50:00,80.2,65.5,30.03,NNW,331,0.0,1.0,61,0.00,,---,0.10,VWS V13.01,2013-07-29 22:50:00,
2013-07-29 18:52:00,80.0,66.3,30.04,NNW,331,0.0,1.0,63,0.00,,---,0.10,VWS V13.01,2013-07-29 22:52:00,
2013-07-29 18:53:00,79.8,65.6,30.04,NNW,331,0.0,1.0,62,0.00,,---,0.10,VWS V13.01,2013-07-29 22:53:00,
2013-07-29 18:54:00,79.8,65.6,30.04,NNW,331,1.0,1.0,62,0.00,,---,0.10,VWS V13.01,2013-07-29 22:54:00,
2013-07-29 18:55:00,79.7,64.6,30.04,NNW,330,0.0,4.0,60,0.00,,---,0.10,VWS V13.01,2013-07-29 22:55:00,
2013-07-29 18:58:00,79.7,65.1,30.04,NNW,331,0.0,4.0,61,0.00,,---,0.10,VWS V13.01,2013-07-29 22:58:00,
2013-07-29 19:00:00,79.6,65.4,30.04,NNW,331,0.0,4.0,62,0.00,,---,0.10,VWS V13.01,2013-07-29 23:00:00,
2013-07-29 19:01:00,79.4,65.3,30.04,NNW,330,0.0,4.0,62,0.00,,---,0.10,VWS V13.01,2013-07-29 23:01:00,
2013-07-29 19:03:00,79.4,63.3,30.04,NNW,330,0.0,1.0,58,0.00,,---,0.10,VWS V13.01,2013-07-29 23:03:00,
2013-07-29 19:04:00,79.4,64.8,30.04,NNW,331,0.0,1.0,61,0.00,,---,0.10,VWS V13.01,2013-07-29 23:04:00,
2013-07-29 19:05:00,79.4,64.3,30.04,NNW,330,0.0,1.0,60,0.00,,---,0.10,VWS V13.01,2013-07-29 23:05:00,
2013-07-29 19:08:00,79.4,65.3,30.04,NNW,331,0.0,1.0,62,0.00,,---,0.10,VWS V13.01,2013-07-29 23:08:00,
2013-07-29 19:09:00,79.2,65.1,30.04,NNW,331,0.0,1.0,62,0.00,,---,0.10,VWS V13.01,2013-07-29 23:09:00,
2013-07-29 19:10:00,79.2,65.5,30.04,NNW,330,0.0,1.0,63,0.00,,---,0.10,VWS V13.01,2013-07-29 23:10:00,
2013-07-29 19:13:00,79.0,64.4,30.04,NNW,331,0.0,1.0,61,0.00,,---,0.10,VWS V13.01,2013-07-29 23:13:00,
2013-07-29 19:14:00,79.1,64.0,30.04,NNW,330,0.0,1.0,60,0.00,,---,0.10,VWS V13.01,2013-07-29 23:14:00,
2013-07-29 19:16:00,79.0,64.9,30.04,NNW,331,0.0,1.0,62,0.00,,---,0.10,VWS V13.01,2013-07-29 23:16:00,
2013-07-29 19:19:00,78.8,65.2,30.04,NNW,331,0.0,1.0,63,0.00,,---,0.10,VWS V13.01,2013-07-29 23:19:00,
2013-07-29 19:20:00,78.7,64.1,30.04,NNW,330,0.0,2.0,61,0.00,,---,0.10,VWS V13.01,2013-07-29 23:20:00,
2013-07-29 19:21:00,78.7,65.1,30.04,NNW,331,0.0,2.0,63,0.00,,---,0.10,VWS V13.01,2013-07-29 23:21:00,
2013-07-29 19:24:00,78.7,64.6,30.04,NNW,331,0.0,2.0,62,0.00,,---,0.10,VWS V13.01,2013-07-29 23:24:00,
2013-07-29 19:25:00,78.7,65.5,30.04,NNW,331,1.0,2.0,64,0.00,,---,0.10,VWS V13.01,2013-07-29 23:25:00,
2013-07-29 19:28:00,78.4,64.3,30.04,NNW,331,0.0,2.0,62,0.00,,---,0.10,VWS V13.01,2013-07-29 23:28:00,
2013-07-29 19:29:00,78.4,64.3,30.04,NNW,331,0.0,2.0,62,0.00,,---,0.10,VWS V13.01,2013-07-29 23:29:00,
2013-07-29 19:30:00,78.4,64.8,30.04,NNW,331,0.0,2.0,63,0.00,,---,0.10,VWS V13.01,2013-07-29 23:30:00,
2013-07-29 19:34:00,77.6,65.3,30.04,NNW,330,0.0,1.0,66,0.00,,---,0.10,VWS V13.01,2013-07-29 23:34:00,
2013-07-29 19:35:00,77.5,65.3,30.04,NNW,330,0.0,1.0,66,0.00,,---,0.10,VWS V13.01,2013-07-29 23:35:00,
2013-07-29 19:40:00,77.2,65.4,30.05,NNW,330,0.0,1.0,67,0.00,,---,0.10,VWS V13.01,2013-07-29 23:40:00,
2013-07-29 19:41:00,77.0,65.2,30.05,NNW,330,0.0,1.0,67,0.00,,---,0.10,VWS V13.01,2013-07-29 23:41:00,
2013-07-29 19:42:00,76.9,65.5,30.05,NNW,331,0.0,1.0,68,0.00,,---,0.10,VWS V13.01,2013-07-29 23:42:00,
2013-07-29 19:45:00,76.6,65.3,30.05,NNW,331,0.0,1.0,68,0.00,,---,0.10,VWS V13.01,2013-07-29 23:45:00,
2013-07-29 19:46:00,76.5,65.6,30.05,NNW,330,0.0,1.0,69,0.00,,---,0.10,VWS V13.01,2013-07-29 23:46:00,
2013-07-29 19:47:00,76.5,65.6,30.05,NNW,331,0.0,1.0,69,0.00,,---,0.10,VWS V13.01,2013-07-29 23:47:00,
2013-07-29 19:51:00,76.2,65.7,30.05,NNW,330,0.0,1.0,70,0.00,,---,0.10,VWS V13.01,2013-07-29 23:51:00,
2013-07-29 19:52:00,76.2,65.7,30.05,NNW,330,0.0,1.0,70,0.00,,---,0.10,VWS V13.01,2013-07-29 23:52:00,
2013-07-29 19:56:00,75.7,65.2,30.05,NNW,330,0.0,1.0,70,0.00,,---,0.10,VWS V13.01,2013-07-29 23:56:00,
2013-07-29 19:57:00,75.6,65.1,30.05,NNW,331,0.0,1.0,70,0.00,,---,0.10,VWS V13.01,2013-07-29 23:57:00,
2013-07-29 20:01:00,75.7,65.6,30.05,NNW,330,0.0,1.0,71,0.00,,---,0.10,VWS V13.01,2013-07-30 00:01:00,
2013-07-29 20:02:00,75.7,65.6,30.05,NNW,330,0.0,0.0,71,0.00,,---,0.10,VWS V13.01,2013-07-30 00:02:00,
2013-07-29 20:03:00,75.7,65.6,30.06,NNW,331,0.0,0.0,71,0.00,,---,0.10,VWS V13.01,2013-07-30 00:03:00,
2013-07-29 20:07:00,75.4,65.3,30.06,NNW,330,0.0,0.0,71,0.00,,---,0.10,VWS V13.01,2013-07-30 00:07:00,
2013-07-29 20:09:00,75.2,65.2,30.06,NNW,331,0.0,0.0,71,0.00,,---,0.10,VWS V13.01,2013-07-30 00:09:00,
2013-07-29 20:12:00,75.0,65.4,30.06,NNW,331,0.0,0.0,72,0.00,,---,0.10,VWS V13.01,2013-07-30 00:12:00,
2013-07-29 20:15:00,74.7,65.1,30.06,NNW,330,0.0,1.0,72,0.00,,---,0.10,VWS V13.01,2013-07-30 00:15:00,
2013-07-29 20:16:00,74.7,65.1,30.06,NNW,331,0.0,1.0,72,0.00,,---,0.10,VWS V13.01,2013-07-30 00:16:00,
2013-07-29 20:17:00,74.7,65.1,30.06,NNW,331,0.0,1.0,72,0.00,,---,0.10,VWS V13.01,2013-07-30 00:17:00,
2013-07-29 20:20:00,74.5,65.3,30.07,NNW,331,0.0,1.0,73,0.00,,---,0.10,VWS V13.01,2013-07-30 00:20:00,
2013-07-29 20:21:00,74.4,65.2,30.07,NNW,330,0.0,1.0,73,0.00,,---,0.10,VWS V13.01,2013-07-30 00:21:00,
2013-07-29 20:22:00,74.4,65.2,30.07,NNW,330,0.0,1.0,73,0.00,,---,0.10,VWS V13.01,2013-07-30 00:22:00,
2013-07-29 20:26:00,74.2,65.0,30.07,NNW,331,0.0,1.0,73,0.00,,---,0.10,VWS V13.01,2013-07-30 00:26:00,
2013-07-29 20:27:00,74.2,65.4,30.07,NNW,331,0.0,1.0,74,0.00,,---,0.10,VWS V13.01,2013-07-30 00:27:00,
2013-07-29 20:28:00,74.1,65.3,30.07,NNW,331,0.0,1.0,74,0.00,,---,0.10,VWS V13.01,2013-07-30 00:28:00,
2013-07-29 20:31:00,74.1,65.3,30.07,NNW,331,0.0,1.0,74,0.00,,---,0.10,VWS V13.01,2013-07-30 00:31:00,
2013-07-29 20:33:00,74.0,65.2,30.08,NNW,331,0.0,0.0,74,0.00,,---,0.10,VWS V13.01,2013-07-30 00:33:00,
2013-07-29 20:36:00,73.8,65.0,30.08,NNW,330,0.0,0.0,74,0.00,,---,0.10,VWS V13.01,2013-07-30 00:36:00,
2013-07-29 20:39:00,73.6,65.2,30.08,NNW,331,0.0,0.0,75,0.00,,---,0.10,VWS V13.01,2013-07-30 00:39:00,
2013-07-29 20:40:00,73.6,65.2,30.08,NNW,330,0.0,0.0,75,0.00,,---,0.10,VWS V13.01,2013-07-30 00:40:00,
2013-07-29 20:42:00,73.5,65.5,30.08,NNW,331,0.0,0.0,76,0.00,,---,0.10,VWS V13.01,2013-07-30 00:42:00,
2013-07-29 20:44:00,73.4,65.4,30.08,NNW,331,0.0,0.0,76,0.00,,---,0.10,VWS V13.01,2013-07-30 00:44:00,
2013-07-29 20:45:00,73.3,65.3,30.08,NNW,331,0.0,0.0,76,0.00,,---,0.10,VWS V13.01,2013-07-30 00:45:00,
2013-07-29 20:46:00,73.3,65.3,30.08,NNW,330,0.0,0.0,76,0.00,,---,0.10,VWS V13.01,2013-07-30 00:46:00,
2013-07-29 20:47:00,73.2,65.6,30.08,NNW,331,0.0,0.0,77,0.00,,---,0.10,VWS V13.01,2013-07-30 00:47:00,
2013-07-29 20:49:00,73.1,65.8,30.08,NNW,331,0.0,0.0,78,0.00,,---,0.10,VWS V13.01,2013-07-30 00:49:00,
2013-07-29 20:51:00,73.0,65.7,30.08,NNW,331,0.0,0.0,78,0.00,,---,0.10,VWS V13.01,2013-07-30 00:51:00,
2013-07-29 20:52:00,72.9,65.7,30.08,NNW,330,0.0,0.0,78,0.00,,---,0.10,VWS V13.01,2013-07-30 00:52:00,
2013-07-29 20:54:00,72.8,65.9,30.08,NNW,330,0.0,0.0,79,0.00,,---,0.10,VWS V13.01,2013-07-30 00:54:00,
2013-07-29 20:56:00,72.6,65.7,30.09,NNW,330,0.0,0.0,79,0.00,,---,0.10,VWS V13.01,2013-07-30 00:56:00,
2013-07-29 20:59:00,72.3,65.4,30.09,NNW,330,0.0,0.0,79,0.00,,---,0.10,VWS V13.01,2013-07-30 00:59:00,
2013-07-29 21:02:00,72.1,65.6,30.09,NNW,330,0.0,0.0,80,0.00,,---,0.10,VWS V13.01,2013-07-30 01:02:00,
2013-07-29 21:04:00,72.0,65.5,30.09,NNW,331,0.0,0.0,80,0.00,,---,0.10,VWS V13.01,2013-07-30 01:04:00,
2013-07-29 21:05:00,72.0,65.5,30.09,NNW,331,0.0,0.0,80,0.00,,---,0.10,VWS V13.01,2013-07-30 01:05:00,
2013-07-29 21:09:00,71.9,65.8,30.09,NNW,331,0.0,0.0,81,0.00,,---,0.10,VWS V13.01,2013-07-30 01:09:00,
2013-07-29 21:10:00,71.8,65.7,30.09,NNW,331,0.0,0.0,81,0.00,,---,0.10,VWS V13.01,2013-07-30 01:10:00,
2013-07-29 21:15:00,71.5,65.7,30.09,NNW,330,0.0,0.0,82,0.00,,---,0.10,VWS V13.01,2013-07-30 01:15:00,
2013-07-29 21:16:00,71.4,65.6,30.09,NNW,330,0.0,0.0,82,0.00,,---,0.10,VWS V13.01,2013-07-30 01:16:00,
2013-07-29 21:21:00,71.1,65.3,30.09,NNW,331,0.0,0.0,82,0.00,,---,0.10,VWS V13.01,2013-07-30 01:21:00,
2013-07-29 21:22:00,71.0,65.2,30.09,NNW,330,0.0,0.0,82,0.00,,---,0.10,VWS V13.01,2013-07-30 01:22:00,
2013-07-29 21:23:00,71.0,65.2,30.09,NNW,331,0.0,0.0,82,0.00,,---,0.10,VWS V13.01,2013-07-30 01:23:00,
2013-07-29 21:26:00,70.9,65.5,30.09,NNW,331,0.0,0.0,83,0.00,,---,0.10,VWS V13.01,2013-07-30 01:26:00,
2013-07-29 21:27:00,70.8,65.4,30.09,NNW,330,0.0,0.0,83,0.00,,---,0.10,VWS V13.01,2013-07-30 01:27:00,
2013-07-29 21:28:00,70.8,65.4,30.09,NNW,331,0.0,0.0,83,0.00,,---,0.10,VWS V13.01,2013-07-30 01:28:00,
2013-07-29 21:31:00,70.6,65.5,30.09,NNW,331,0.0,0.0,84,0.00,,---,0.10,VWS V13.01,2013-07-30 01:31:00,
2013-07-29 21:33:00,70.6,65.5,30.09,NNW,331,0.0,0.0,84,0.00,,---,0.10,VWS V13.01,2013-07-30 01:33:00,
2013-07-29 21:34:00,70.6,65.5,30.09,NNW,331,0.0,0.0,84,0.00,,---,0.10,VWS V13.01,2013-07-30 01:34:00,
2013-07-29 21:37:00,70.4,65.7,30.09,NNW,331,0.0,0.0,85,0.00,,---,0.10,VWS V13.01,2013-07-30 01:37:00,
2013-07-29 21:39:00,70.3,65.6,30.09,NNW,330,0.0,0.0,85,0.00,,---,0.10,VWS V13.01,2013-07-30 01:39:00,
2013-07-29 21:40:00,70.3,65.6,30.09,NNW,331,0.0,0.0,85,0.00,,---,0.10,VWS V13.01,2013-07-30 01:40:00,
2013-07-29 21:42:00,70.1,65.7,30.09,NNW,330,0.0,0.0,86,0.00,,---,0.10,VWS V13.01,2013-07-30 01:42:00,
2013-07-29 21:44:00,70.1,65.7,30.09,NNW,331,0.0,0.0,86,0.00,,---,0.10,VWS V13.01,2013-07-30 01:44:00,
2013-07-29 21:45:00,70.0,65.6,30.09,NNW,330,0.0,0.0,86,0.00,,---,0.10,VWS V13.01,2013-07-30 01:45:00,
2013-07-29 21:48:00,69.9,65.5,30.09,NNW,331,0.0,0.0,86,0.00,,---,0.10,VWS V13.01,2013-07-30 01:48:00,
2013-07-29 21:49:00,69.8,65.8,30.09,NNW,331,0.0,0.0,87,0.00,,---,0.10,VWS V13.01,2013-07-30 01:49:00,
2013-07-29 21:51:00,69.8,65.8,30.09,NNW,330,0.0,0.0,87,0.00,,---,0.10,VWS V13.01,2013-07-30 01:51:00,
2013-07-29 21:54:00,69.7,65.7,30.10,NNW,331,0.0,0.0,87,0.00,,---,0.10,VWS V13.01,2013-07-30 01:54:00,
2013-07-29 21:55:00,69.7,65.7,30.10,NNW,331,0.0,0.0,87,0.00,,---,0.10,VWS V13.01,2013-07-30 01:55:00,
2013-07-29 21:56:00,69.7,65.7,30.10,NNW,330,0.0,0.0,87,0.00,,---,0.10,VWS V13.01,2013-07-30 01:56:00,
2013-07-29 22:00:00,69.6,65.6,30.09,NNW,330,0.0,0.0,87,0.00,,---,0.10,VWS V13.01,2013-07-30 02:00:00,
2013-07-29 22:01:00,69.6,65.6,30.10,NNW,331,0.0,0.0,87,0.00,,---,0.10,VWS V13.01,2013-07-30 02:01:00,
2013-07-29 22:02:00,69.6,65.6,30.10,NNW,331,0.0,0.0,87,0.00,,---,0.10,VWS V13.01,2013-07-30 02:02:00,
2013-07-29 22:06:00,69.7,66.0,30.10,NNW,331,0.0,0.0,88,0.00,,---,0.10,VWS V13.01,2013-07-30 02:06:00,
2013-07-29 22:07:00,69.7,66.0,30.10,NNW,331,0.0,0.0,88,0.00,,---,0.10,VWS V13.01,2013-07-30 02:07:00,
2013-07-29 22:12:00,69.7,66.0,30.10,NNW,331,0.0,0.0,88,0.00,,---,0.10,VWS V13.01,2013-07-30 02:12:00,
2013-07-29 22:13:00,69.6,65.9,30.10,NNW,331,0.0,0.0,88,0.00,,---,0.10,VWS V13.01,2013-07-30 02:13:00,
2013-07-29 22:17:00,69.6,66.2,30.10,NNW,331,0.0,0.0,89,0.00,,---,0.10,VWS V13.01,2013-07-30 02:17:00,
2013-07-29 22:18:00,69.6,66.2,30.10,NNW,330,0.0,0.0,89,0.00,,---,0.10,VWS V13.01,2013-07-30 02:18:00,
2013-07-29 22:19:00,69.6,65.9,30.10,NNW,331,0.0,0.0,88,0.00,,---,0.10,VWS V13.01,2013-07-30 02:19:00,
2013-07-29 22:22:00,69.4,66.0,30.10,NNW,330,0.0,0.0,89,0.00,,---,0.10,VWS V13.01,2013-07-30 02:22:00,
2013-07-29 22:23:00,69.4,66.0,30.10,NNW,331,0.0,0.0,89,0.00,,---,0.10,VWS V13.01,2013-07-30 02:23:00,
2013-07-29 22:24:00,69.3,65.9,30.10,NNW,331,0.0,0.0,89,0.00,,---,0.10,VWS V13.01,2013-07-30 02:24:00,
2013-07-29 22:27:00,69.2,65.8,30.10,NNW,330,0.0,0.0,89,0.00,,---,0.10,VWS V13.01,2013-07-30 02:27:00,
2013-07-29 22:28:00,69.2,65.8,30.10,NNW,330,0.0,0.0,89,0.00,,---,0.10,VWS V13.01,2013-07-30 02:28:00,
2013-07-29 22:30:00,69.2,65.8,30.10,NNW,331,0.0,0.0,89,0.00,,---,0.10,VWS V13.01,2013-07-30 02:30:00,
2013-07-29 22:32:00,69.2,65.8,30.10,NNW,331,0.0,0.0,89,0.00,,---,0.10,VWS V13.01,2013-07-30 02:32:00,
2013-07-29 22:34:00,69.1,65.7,30.10,NNW,331,0.0,0.0,89,0.00,,---,0.10,VWS V13.01,2013-07-30 02:34:00,
2013-07-29 22:35:00,69.0,65.6,30.10,NNW,331,0.0,0.0,89,0.00,,---,0.10,VWS V13.01,2013-07-30 02:35:00,
2013-07-29 22:36:00,69.0,65.6,30.10,NNW,330,0.0,0.0,89,0.00,,---,0.10,VWS V13.01,2013-07-30 02:36:00,
2013-07-29 22:37:00,68.9,65.5,30.10,NNW,331,0.0,0.0,89,0.00,,---,0.10,VWS V13.01,2013-07-30 02:37:00,
2013-07-29 22:39:00,68.8,65.4,30.11,NNW,331,0.0,0.0,89,0.00,,---,0.10,VWS V13.01,2013-07-30 02:39:00,
2013-07-29 22:42:00,68.7,65.7,30.10,NNW,330,0.0,0.0,90,0.00,,---,0.10,VWS V13.01,2013-07-30 02:42:00,
2013-07-29 22:43:00,68.7,65.7,30.11,NNW,331,0.0,0.0,90,0.00,,---,0.10,VWS V13.01,2013-07-30 02:43:00,
2013-07-29 22:45:00,68.7,65.7,30.11,NNW,330,0.0,0.0,90,0.00,,---,0.10,VWS V13.01,2013-07-30 02:45:00,
2013-07-29 22:47:00,68.7,65.3,30.11,NNW,331,0.0,0.0,89,0.00,,---,0.10,VWS V13.01,2013-07-30 02:47:00,
2013-07-29 22:48:00,68.7,65.3,30.11,NNW,331,0.0,0.0,89,0.00,,---,0.10,VWS V13.01,2013-07-30 02:48:00,
2013-07-29 22:50:00,68.6,65.6,30.11,NNW,331,0.0,0.0,90,0.00,,---,0.10,VWS V13.01,2013-07-30 02:50:00,
2013-07-29 22:53:00,68.6,65.6,30.11,NNW,330,0.0,0.0,90,0.00,,---,0.10,VWS V13.01,2013-07-30 02:53:00,
2013-07-29 22:56:00,68.6,65.6,30.11,NNW,330,0.0,0.0,90,0.00,,---,0.10,VWS V13.01,2013-07-30 02:56:00,
2013-07-29 22:58:00,68.5,65.5,30.11,NNW,330,0.0,0.0,90,0.00,,---,0.10,VWS V13.01,2013-07-30 02:58:00,
2013-07-29 22:59:00,68.5,65.5,30.11,NNW,330,0.0,0.0,90,0.00,,---,0.10,VWS V13.01,2013-07-30 02:59:00,
2013-07-29 23:01:00,68.4,65.7,30.11,NNW,331,0.0,0.0,91,0.00,,---,0.10,VWS V13.01,2013-07-30 03:01:00,
2013-07-29 23:04:00,68.3,65.6,30.11,NNW,330,0.0,0.0,91,0.00,,---,0.10,VWS V13.01,2013-07-30 03:04:00,
2013-07-29 23:06:00,68.2,65.5,30.11,NNW,331,0.0,0.0,91,0.00,,---,0.10,VWS V13.01,2013-07-30 03:06:00,
2013-07-29 23:09:00,68.2,65.5,30.11,NNW,331,0.0,0.0,91,0.00,,---,0.10,VWS V13.01,2013-07-30 03:09:00,
2013-07-29 23:11:00,68.3,65.6,30.11,NNW,331,0.0,0.0,91,0.00,,---,0.10,VWS V13.01,2013-07-30 03:11:00,
2013-07-29 23:12:00,68.2,65.5,30.11,NNW,330,0.0,0.0,91,0.00,,---,0.10,VWS V13.01,2013-07-30 03:12:00,
2013-07-29 23:14:00,68.2,65.5,30.11,NNW,331,0.0,0.0,91,0.00,,---,0.10,VWS V13.01,2013-07-30 03:14:00,
2013-07-29 23:16:00,68.2,65.5,30.11,NNW,331,0.0,0.0,91,0.00,,---,0.10,VWS V13.01,2013-07-30 03:16:00,
2013-07-29 23:17:00,68.2,65.5,30.11,NNW,331,0.0,0.0,91,0.00,,---,0.10,VWS V13.01,2013-07-30 03:17:00,
2013-07-29 23:20:00,68.1,65.4,30.11,NNW,331,0.0,0.0,91,0.00,,---,0.10,VWS V13.01,2013-07-30 03:20:00,
2013-07-29 23:23:00,68.1,65.4,30.11,NNW,331,0.0,0.0,91,0.00,,---,0.10,VWS V13.01,2013-07-30 03:23:00,
2013-07-29 23:25:00,68.0,65.3,30.11,NNW,331,0.0,0.0,91,0.00,,---,0.10,VWS V13.01,2013-07-30 03:25:00,
2013-07-29 23:28:00,67.9,65.5,30.11,NNW,331,0.0,0.0,92,0.00,,---,0.10,VWS V13.01,2013-07-30 03:28:00,
2013-07-29 23:29:00,67.8,65.4,30.11,NNW,330,0.0,0.0,92,0.00,,---,0.10,VWS V13.01,2013-07-30 03:29:00,
2013-07-29 23:30:00,67.8,65.4,30.11,NNW,331,0.0,0.0,92,0.00,,---,0.10,VWS V13.01,2013-07-30 03:30:00,
2013-07-29 23:33:00,67.6,65.2,30.11,NNW,331,0.0,0.0,92,0.00,,---,0.10,VWS V13.01,2013-07-30 03:33:00,
2013-07-29 23:35:00,67.6,65.2,30.11,NNW,331,0.0,0.0,92,0.00,,---,0.10,VWS V13.01,2013-07-30 03:35:00,
2013-07-29 23:36:00,67.6,65.2,30.11,NNW,330,0.0,0.0,92,0.00,,---,0.10,VWS V13.01,2013-07-30 03:36:00,
2013-07-29 23:40:00,67.4,65.3,30.11,NNW,330,0.0,0.0,93,0.00,,---,0.10,VWS V13.01,2013-07-30 03:40:00,
2013-07-29 23:42:00,67.4,65.3,30.11,NNW,331,0.0,0.0,93,0.00,,---,0.10,VWS V13.01,2013-07-30 03:42:00,
2013-07-29 23:43:00,67.3,65.2,30.11,NNW,330,0.0,0.0,93,0.00,,---,0.10,VWS V13.01,2013-07-30 03:43:00,
2013-07-29 23:46:00,67.1,65.0,30.10,NNW,330,0.0,0.0,93,0.00,,---,0.10,VWS V13.01,2013-07-30 03:46:00,
2013-07-29 23:48:00,67.1,65.0,30.10,NNW,331,0.0,0.0,93,0.00,,---,0.10,VWS V13.01,2013-07-30 03:48:00,
2013-07-29 23:51:00,67.0,64.9,30.10,NNW,330,0.0,0.0,93,0.00,,---,0.10,VWS V13.01,2013-07-30 03:51:00,
2013-07-29 23:53:00,67.0,64.9,30.10,NNW,330,0.0,0.0,93,0.00,,---,0.10,VWS V13.01,2013-07-30 03:53:00,
2013-07-29 23:58:00,66.8,65.0,30.11,NNW,330,0.0,0.0,94,0.00,,---,0.10,VWS V13.01,2013-07-30 03:58:00,
2013-07-29 23:59:00,66.8,65.0,30.11,NNW,331,0.0,0.0,94,0.00,,---,0.10,VWS V13.01,2013-07-30 03:59:00,